Wetterdaten: Mittwoch, 18.03.2026
Datum Zeit Temp. Aussen Temp. o. S. Temp +5cm Feuchte Auss Luftdruck Regen Sonnenschein Solar Windböen Empfang
18.03.2026 00:00 9,6 °C 8,9 °C 5,0 °C 87 % 1022,2 hPa 0,0 l/m² 0 min 0 W/m² 16,1 km/h (3 Bft) 100,00 %
18.03.2026 00:02 9,6 °C 8,9 °C 5,0 °C 87 % 1022,2 hPa 0,0 l/m² 0 min 0 W/m² 16,1 km/h (3 Bft) 97,50 %
18.03.2026 00:04 9,6 °C 8,3 °C 5,0 °C 87 % 1022,2 hPa 0,0 l/m² 0 min 0 W/m² 19,3 km/h (3 Bft) 97,87 %
18.03.2026 00:07 9,5 °C 8,3 °C 5,0 °C 87 % 1022,2 hPa 0,0 l/m² 0 min 0 W/m² 12,9 km/h (3 Bft) 100,00 %
18.03.2026 00:08 9,5 °C 8,3 °C 5,0 °C 87 % 1022,2 hPa 0,0 l/m² 0 min 0 W/m² 6,4 km/h (2 Bft) 100,00 %
18.03.2026 00:10 9,5 °C 8,3 °C 5,0 °C 87 % 1022,2 hPa 0,0 l/m² 0 min 0 W/m² 12,9 km/h (3 Bft) 100,00 %
18.03.2026 00:12 9,5 °C 8,3 °C 5,0 °C 87 % 1022,2 hPa 0,0 l/m² 0 min 0 W/m² 9,7 km/h (2 Bft) 100,00 %
18.03.2026 00:14 9,4 °C 8,3 °C 5,0 °C 87 % 1022,2 hPa 0,0 l/m² 0 min 0 W/m² 12,9 km/h (3 Bft) 97,83 %
18.03.2026 00:16 9,4 °C 8,3 °C 5,0 °C 87 % 1022,2 hPa 0,0 l/m² 0 min 0 W/m² 12,9 km/h (3 Bft) 95,74 %
18.03.2026 00:18 9,4 °C 8,3 °C 5,0 °C 87 % 1022,2 hPa 0,0 l/m² 0 min 0 W/m² 16,1 km/h (3 Bft) 97,87 %
18.03.2026 00:20 9,4 °C 8,3 °C 5,0 °C 87 % 1022,3 hPa 0,0 l/m² 0 min 0 W/m² 19,3 km/h (3 Bft) 95,74 %
18.03.2026 00:22 9,4 °C 8,3 °C 5,0 °C 87 % 1022,3 hPa 0,0 l/m² 0 min 0 W/m² 12,9 km/h (3 Bft) 97,87 %
18.03.2026 00:24 9,4 °C 8,3 °C 5,0 °C 87 % 1022,3 hPa 0,0 l/m² 0 min 0 W/m² 12,9 km/h (3 Bft) 97,87 %
18.03.2026 00:26 9,3 °C 8,3 °C 4,4 °C 87 % 1022,3 hPa 0,0 l/m² 0 min 0 W/m² 12,9 km/h (3 Bft) 95,65 %
18.03.2026 00:28 9,3 °C 8,3 °C 4,4 °C 87 % 1022,3 hPa 0,0 l/m² 0 min 0 W/m² 9,7 km/h (2 Bft) 95,74 %
18.03.2026 00:30 9,3 °C 8,3 °C 4,4 °C 87 % 1022,3 hPa 0,0 l/m² 0 min 0 W/m² 12,9 km/h (3 Bft) 95,74 %
18.03.2026 00:32 9,3 °C 8,3 °C 4,4 °C 87 % 1022,2 hPa 0,0 l/m² 0 min 0 W/m² 6,4 km/h (2 Bft) 95,74 %
18.03.2026 00:34 9,3 °C 8,3 °C 4,4 °C 87 % 1022,3 hPa 0,0 l/m² 0 min 0 W/m² 16,1 km/h (3 Bft) 93,62 %
18.03.2026 00:36 9,2 °C 8,3 °C 4,4 °C 87 % 1022,2 hPa 0,0 l/m² 0 min 0 W/m² 12,9 km/h (3 Bft) 95,74 %
18.03.2026 00:38 9,2 °C 8,3 °C 4,4 °C 87 % 1022,3 hPa 0,0 l/m² 0 min 0 W/m² 12,9 km/h (3 Bft) 97,83 %
18.03.2026 00:40 9,2 °C 8,3 °C 4,4 °C 87 % 1022,3 hPa 0,0 l/m² 0 min 0 W/m² 12,9 km/h (3 Bft) 95,74 %
18.03.2026 00:42 9,2 °C 8,3 °C 4,4 °C 87 % 1022,3 hPa 0,0 l/m² 0 min 0 W/m² 19,3 km/h (3 Bft) 95,74 %
18.03.2026 00:44 9,2 °C 8,3 °C 4,4 °C 87 % 1022,3 hPa 0,0 l/m² 0 min 0 W/m² 9,7 km/h (2 Bft) 95,74 %
18.03.2026 00:46 9,1 °C 7,8 °C 4,4 °C 88 % 1022,3 hPa 0,0 l/m² 0 min 0 W/m² 9,7 km/h (2 Bft) 95,74 %
18.03.2026 00:48 9,1 °C 7,8 °C 4,4 °C 88 % 1022,3 hPa 0,0 l/m² 0 min 0 W/m² 6,4 km/h (2 Bft) 93,62 %
18.03.2026 00:50 9,1 °C 7,8 °C 4,4 °C 88 % 1022,3 hPa 0,0 l/m² 0 min 0 W/m² 6,4 km/h (2 Bft) 89,13 %
18.03.2026 00:52 9,1 °C 7,8 °C 4,4 °C 88 % 1022,3 hPa 0,0 l/m² 0 min 0 W/m² 3,2 km/h (1 Bft) 95,74 %
18.03.2026 00:54 9,1 °C 7,8 °C 4,4 °C 88 % 1022,4 hPa 0,0 l/m² 0 min 0 W/m² 6,4 km/h (2 Bft) 95,74 %
18.03.2026 00:56 9,1 °C 7,8 °C 4,4 °C 87 % 1022,5 hPa 0,0 l/m² 0 min 0 W/m² 12,9 km/h (3 Bft) 93,62 %
18.03.2026 00:58 9,0 °C 7,8 °C 4,4 °C 87 % 1022,4 hPa 0,0 l/m² 0 min 0 W/m² 9,7 km/h (2 Bft) 97,87 %
18.03.2026 01:00 8,9 °C 7,8 °C 4,4 °C 88 % 1022,5 hPa 0,0 l/m² 0 min 0 W/m² 6,4 km/h (2 Bft) 97,87 %
18.03.2026 01:02 8,9 °C 7,8 °C 4,4 °C 88 % 1022,5 hPa 0,0 l/m² 0 min 0 W/m² 12,9 km/h (3 Bft) 97,83 %
18.03.2026 01:04 8,9 °C 7,8 °C 3,9 °C 88 % 1022,5 hPa 0,0 l/m² 0 min 0 W/m² 6,4 km/h (2 Bft) 97,92 %
18.03.2026 01:06 8,8 °C 7,8 °C 3,9 °C 88 % 1022,6 hPa 0,0 l/m² 0 min 0 W/m² 16,1 km/h (3 Bft) 97,87 %
18.03.2026 01:08 8,8 °C 7,8 °C 3,9 °C 88 % 1022,6 hPa 0,0 l/m² 0 min 0 W/m² 6,4 km/h (2 Bft) 97,87 %
18.03.2026 01:10 8,8 °C 7,8 °C 3,9 °C 88 % 1022,6 hPa 0,0 l/m² 0 min 0 W/m² 12,9 km/h (3 Bft) 95,74 %
18.03.2026 01:12 8,8 °C 7,8 °C 3,9 °C 88 % 1022,6 hPa 0,0 l/m² 0 min 0 W/m² 6,4 km/h (2 Bft) 97,83 %
18.03.2026 01:14 8,8 °C 7,8 °C 3,9 °C 88 % 1022,6 hPa 0,0 l/m² 0 min 0 W/m² 6,4 km/h (2 Bft) 95,74 %
18.03.2026 01:16 8,7 °C 7,8 °C 4,4 °C 88 % 1022,6 hPa 0,0 l/m² 0 min 0 W/m² 12,9 km/h (3 Bft) 95,74 %
18.03.2026 01:18 8,7 °C 7,8 °C 4,4 °C 88 % 1022,6 hPa 0,0 l/m² 0 min 0 W/m² 16,1 km/h (3 Bft) 97,87 %
18.03.2026 01:20 8,7 °C 7,8 °C 4,4 °C 88 % 1022,6 hPa 0,0 l/m² 0 min 0 W/m² 16,1 km/h (3 Bft) 97,87 %
18.03.2026 01:22 8,7 °C 7,8 °C 4,4 °C 88 % 1022,6 hPa 0,0 l/m² 0 min 0 W/m² 12,9 km/h (3 Bft) 95,74 %
18.03.2026 01:24 8,7 °C 7,8 °C 4,4 °C 88 % 1022,6 hPa 0,0 l/m² 0 min 0 W/m² 16,1 km/h (3 Bft) 97,83 %
18.03.2026 01:26 8,7 °C 7,8 °C 4,4 °C 88 % 1022,6 hPa 0,0 l/m² 0 min 0 W/m² 16,1 km/h (3 Bft) 97,87 %
18.03.2026 01:28 8,7 °C 7,8 °C 4,4 °C 88 % 1022,6 hPa 0,0 l/m² 0 min 0 W/m² 12,9 km/h (3 Bft) 97,87 %
18.03.2026 01:30 8,7 °C 7,8 °C 3,9 °C 88 % 1022,7 hPa 0,0 l/m² 0 min 0 W/m² 12,9 km/h (3 Bft) 97,87 %
18.03.2026 01:32 8,7 °C 7,8 °C 3,9 °C 88 % 1022,7 hPa 0,0 l/m² 0 min 0 W/m² 12,9 km/h (3 Bft) 97,87 %
18.03.2026 01:34 8,7 °C 7,8 °C 3,9 °C 88 % 1022,7 hPa 0,0 l/m² 0 min 0 W/m² 12,9 km/h (3 Bft) 97,87 %
18.03.2026 01:36 8,6 °C 7,8 °C 3,9 °C 88 % 1022,7 hPa 0,0 l/m² 0 min 0 W/m² 12,9 km/h (3 Bft) 97,83 %
18.03.2026 01:38 8,6 °C 7,8 °C 3,9 °C 88 % 1022,7 hPa 0,0 l/m² 0 min 0 W/m² 16,1 km/h (3 Bft) 97,87 %
18.03.2026 01:40 8,6 °C 7,8 °C 3,9 °C 88 % 1022,7 hPa 0,0 l/m² 0 min 0 W/m² 12,9 km/h (3 Bft) 97,87 %
18.03.2026 01:42 8,6 °C 7,8 °C 3,9 °C 88 % 1022,8 hPa 0,0 l/m² 0 min 0 W/m² 16,1 km/h (3 Bft) 95,74 %
18.03.2026 01:44 8,6 °C 7,8 °C 3,9 °C 88 % 1022,8 hPa 0,0 l/m² 0 min 0 W/m² 6,4 km/h (2 Bft) 97,87 %
18.03.2026 01:46 8,6 °C 7,8 °C 3,9 °C 88 % 1022,8 hPa 0,0 l/m² 0 min 0 W/m² 12,9 km/h (3 Bft) 97,87 %
18.03.2026 01:48 8,6 °C 7,8 °C 3,9 °C 88 % 1022,9 hPa 0,0 l/m² 0 min 0 W/m² 12,9 km/h (3 Bft) 100,00 %
18.03.2026 01:50 8,6 °C 7,8 °C 3,9 °C 88 % 1022,8 hPa 0,0 l/m² 0 min 0 W/m² 12,9 km/h (3 Bft) 100,00 %
18.03.2026 01:52 8,6 °C 7,8 °C 3,9 °C 88 % 1022,8 hPa 0,0 l/m² 0 min 0 W/m² 12,9 km/h (3 Bft) 100,00 %
18.03.2026 01:54 8,6 °C 7,8 °C 3,9 °C 88 % 1022,8 hPa 0,0 l/m² 0 min 0 W/m² 16,1 km/h (3 Bft) 100,00 %
18.03.2026 01:56 8,6 °C 7,8 °C 3,9 °C 88 % 1022,9 hPa 0,0 l/m² 0 min 0 W/m² 12,9 km/h (3 Bft) 100,00 %
18.03.2026 01:58 8,5 °C 7,8 °C 3,9 °C 88 % 1022,9 hPa 0,0 l/m² 0 min 0 W/m² 12,9 km/h (3 Bft) 100,00 %
18.03.2026 02:00 8,5 °C 7,8 °C 3,9 °C 88 % 1022,9 hPa 0,0 l/m² 0 min 0 W/m² 19,3 km/h (3 Bft) 97,83 %
18.03.2026 02:02 8,5 °C 7,8 °C 3,9 °C 88 % 1023,0 hPa 0,0 l/m² 0 min 0 W/m² 12,9 km/h (3 Bft) 100,00 %
18.03.2026 02:04 8,4 °C 7,8 °C 3,9 °C 88 % 1023,0 hPa 0,0 l/m² 0 min 0 W/m² 16,1 km/h (3 Bft) 100,00 %
18.03.2026 02:06 8,5 °C 7,8 °C 3,9 °C 88 % 1023,0 hPa 0,0 l/m² 0 min 0 W/m² 19,3 km/h (3 Bft) 100,00 %
18.03.2026 02:08 8,4 °C 7,8 °C 3,9 °C 88 % 1023,0 hPa 0,0 l/m² 0 min 0 W/m² 9,7 km/h (2 Bft) 100,00 %
18.03.2026 02:10 8,4 °C 7,8 °C 3,9 °C 88 % 1023,0 hPa 0,0 l/m² 0 min 0 W/m² 12,9 km/h (3 Bft) 100,00 %
18.03.2026 02:12 8,4 °C 7,8 °C 3,9 °C 88 % 1023,0 hPa 0,0 l/m² 0 min 0 W/m² 16,1 km/h (3 Bft) 100,00 %
18.03.2026 02:14 8,5 °C 7,8 °C 4,4 °C 88 % 1023,0 hPa 0,0 l/m² 0 min 0 W/m² 6,4 km/h (2 Bft) 100,00 %
18.03.2026 02:16 8,5 °C 7,8 °C 4,4 °C 88 % 1023,0 hPa 0,0 l/m² 0 min 0 W/m² 9,7 km/h (2 Bft) 100,00 %
18.03.2026 02:18 8,5 °C 7,8 °C 4,4 °C 88 % 1023,0 hPa 0,0 l/m² 0 min 0 W/m² 16,1 km/h (3 Bft) 97,87 %
18.03.2026 02:20 8,5 °C 7,8 °C 4,4 °C 88 % 1023,0 hPa 0,0 l/m² 0 min 0 W/m² 19,3 km/h (3 Bft) 95,74 %
18.03.2026 02:22 8,5 °C 7,8 °C 4,4 °C 88 % 1022,9 hPa 0,0 l/m² 0 min 0 W/m² 12,9 km/h (3 Bft) 97,83 %
18.03.2026 02:24 8,5 °C 7,8 °C 4,4 °C 88 % 1022,9 hPa 0,0 l/m² 0 min 0 W/m² 12,9 km/h (3 Bft) 97,87 %
18.03.2026 02:26 8,6 °C 7,8 °C 4,4 °C 88 % 1022,9 hPa 0,0 l/m² 0 min 0 W/m² 22,5 km/h (4 Bft) 97,87 %
18.03.2026 02:28 8,6 °C 7,8 °C 4,4 °C 88 % 1022,9 hPa 0,0 l/m² 0 min 0 W/m² 12,9 km/h (3 Bft) 95,74 %
18.03.2026 02:30 8,6 °C 7,8 °C 4,4 °C 88 % 1022,9 hPa 0,0 l/m² 0 min 0 W/m² 16,1 km/h (3 Bft) 97,87 %
18.03.2026 02:32 8,6 °C 7,8 °C 4,4 °C 87 % 1022,9 hPa 0,0 l/m² 0 min 0 W/m² 19,3 km/h (3 Bft) 97,87 %
18.03.2026 02:34 8,6 °C 7,8 °C 4,4 °C 87 % 1022,9 hPa 0,0 l/m² 0 min 0 W/m² 22,5 km/h (4 Bft) 97,83 %
18.03.2026 02:36 8,6 °C 7,8 °C 4,4 °C 87 % 1022,9 hPa 0,0 l/m² 0 min 0 W/m² 19,3 km/h (3 Bft) 97,87 %
18.03.2026 02:38 8,6 °C 7,8 °C 4,4 °C 87 % 1022,8 hPa 0,0 l/m² 0 min 0 W/m² 16,1 km/h (3 Bft) 95,74 %
18.03.2026 02:40 8,6 °C 7,8 °C 4,4 °C 87 % 1022,8 hPa 0,0 l/m² 0 min 0 W/m² 19,3 km/h (3 Bft) 97,87 %
18.03.2026 02:42 8,6 °C 7,8 °C 4,4 °C 87 % 1022,8 hPa 0,0 l/m² 0 min 0 W/m² 16,1 km/h (3 Bft) 97,87 %
18.03.2026 02:44 8,7 °C 7,8 °C 4,4 °C 87 % 1022,8 hPa 0,0 l/m² 0 min 0 W/m² 19,3 km/h (3 Bft) 97,87 %
18.03.2026 02:46 8,7 °C 7,8 °C 4,4 °C 87 % 1022,8 hPa 0,0 l/m² 0 min 0 W/m² 19,3 km/h (3 Bft) 95,65 %
18.03.2026 02:48 8,7 °C 7,8 °C 4,4 °C 87 % 1022,8 hPa 0,0 l/m² 0 min 0 W/m² 19,3 km/h (3 Bft) 97,87 %
18.03.2026 02:50 8,7 °C 7,8 °C 4,4 °C 87 % 1022,7 hPa 0,0 l/m² 0 min 0 W/m² 16,1 km/h (3 Bft) 97,87 %
18.03.2026 02:52 8,7 °C 7,8 °C 4,4 °C 86 % 1022,8 hPa 0,0 l/m² 0 min 0 W/m² 19,3 km/h (3 Bft) 100,00 %
18.03.2026 02:54 8,7 °C 7,8 °C 4,4 °C 86 % 1022,8 hPa 0,0 l/m² 0 min 0 W/m² 22,5 km/h (4 Bft) 100,00 %
18.03.2026 02:56 8,7 °C 7,8 °C 4,4 °C 86 % 1022,8 hPa 0,0 l/m² 0 min 0 W/m² 12,9 km/h (3 Bft) 97,87 %
18.03.2026 02:58 8,7 °C 7,8 °C 4,4 °C 86 % 1022,8 hPa 0,0 l/m² 0 min 0 W/m² 12,9 km/h (3 Bft) 97,83 %
18.03.2026 03:00 8,7 °C 7,8 °C 4,4 °C 86 % 1022,8 hPa 0,0 l/m² 0 min 0 W/m² 16,1 km/h (3 Bft) 100,00 %
18.03.2026 03:02 8,7 °C 7,8 °C 4,4 °C 86 % 1022,8 hPa 0,0 l/m² 0 min 0 W/m² 19,3 km/h (3 Bft) 97,87 %
18.03.2026 03:04 8,7 °C 7,8 °C 4,4 °C 86 % 1022,8 hPa 0,0 l/m² 0 min 0 W/m² 12,9 km/h (3 Bft) 97,96 %
18.03.2026 03:06 8,7 °C 7,8 °C 4,4 °C 86 % 1022,8 hPa 0,0 l/m² 0 min 0 W/m² 16,1 km/h (3 Bft) 100,00 %
18.03.2026 03:08 8,6 °C 7,8 °C 4,4 °C 86 % 1022,8 hPa 0,0 l/m² 0 min 0 W/m² 19,3 km/h (3 Bft) 100,00 %
18.03.2026 03:10 8,6 °C 7,8 °C 4,4 °C 86 % 1022,8 hPa 0,0 l/m² 0 min 0 W/m² 16,1 km/h (3 Bft) 97,87 %
18.03.2026 03:12 8,6 °C 7,8 °C 4,4 °C 86 % 1022,7 hPa 0,0 l/m² 0 min 0 W/m² 19,3 km/h (3 Bft) 97,87 %
18.03.2026 03:14 8,6 °C 7,8 °C 4,4 °C 86 % 1022,8 hPa 0,0 l/m² 0 min 0 W/m² 12,9 km/h (3 Bft) 97,87 %
18.03.2026 03:16 8,6 °C 7,8 °C 4,4 °C 86 % 1022,7 hPa 0,0 l/m² 0 min 0 W/m² 16,1 km/h (3 Bft) 97,87 %
18.03.2026 03:18 8,6 °C 7,8 °C 4,4 °C 86 % 1022,8 hPa 0,0 l/m² 0 min 0 W/m² 16,1 km/h (3 Bft) 97,87 %
18.03.2026 03:20 8,6 °C 7,8 °C 3,9 °C 86 % 1022,8 hPa 0,0 l/m² 0 min 0 W/m² 16,1 km/h (3 Bft) 97,83 %
18.03.2026 03:22 8,6 °C 7,8 °C 3,9 °C 86 % 1022,8 hPa 0,0 l/m² 0 min 0 W/m² 19,3 km/h (3 Bft) 55,56 %
18.03.2026 03:24 8,6 °C 7,8 °C 3,9 °C 86 % 1022,8 hPa 0,0 l/m² 0 min 0 W/m² 16,1 km/h (3 Bft) 95,74 %
18.03.2026 03:26 8,6 °C 7,8 °C 3,9 °C 85 % 1022,8 hPa 0,0 l/m² 0 min 0 W/m² 16,1 km/h (3 Bft) 93,62 %
18.03.2026 03:28 8,5 °C 7,8 °C 3,9 °C 85 % 1022,9 hPa 0,0 l/m² 0 min 0 W/m² 16,1 km/h (3 Bft) 95,74 %
18.03.2026 03:30 8,5 °C 7,8 °C 3,9 °C 85 % 1022,8 hPa 0,0 l/m² 0 min 0 W/m² 25,7 km/h (4 Bft) 97,87 %
18.03.2026 03:32 8,4 °C 7,8 °C 3,9 °C 85 % 1022,8 hPa 0,0 l/m² 0 min 0 W/m² 19,3 km/h (3 Bft) 97,83 %
18.03.2026 03:34 8,4 °C 7,2 °C 3,9 °C 85 % 1022,9 hPa 0,0 l/m² 0 min 0 W/m² 22,5 km/h (4 Bft) 93,62 %
18.03.2026 03:36 8,4 °C 7,2 °C 3,9 °C 85 % 1022,8 hPa 0,0 l/m² 0 min 0 W/m² 16,1 km/h (3 Bft) 95,74 %
18.03.2026 03:38 8,4 °C 7,2 °C 3,9 °C 85 % 1022,9 hPa 0,0 l/m² 0 min 0 W/m² 19,3 km/h (3 Bft) 97,87 %
18.03.2026 03:40 8,4 °C 7,2 °C 3,9 °C 85 % 1022,9 hPa 0,0 l/m² 0 min 0 W/m² 19,3 km/h (3 Bft) 97,87 %
18.03.2026 03:42 8,3 °C 7,2 °C 3,9 °C 85 % 1022,9 hPa 0,0 l/m² 0 min 0 W/m² 22,5 km/h (4 Bft) 93,62 %
18.03.2026 03:44 8,3 °C 7,2 °C 3,9 °C 85 % 1022,9 hPa 0,0 l/m² 0 min 0 W/m² 25,7 km/h (4 Bft) 95,65 %
18.03.2026 03:46 8,3 °C 7,2 °C 3,9 °C 85 % 1022,9 hPa 0,0 l/m² 0 min 0 W/m² 16,1 km/h (3 Bft) 93,62 %
18.03.2026 03:48 8,3 °C 7,2 °C 3,9 °C 85 % 1023,0 hPa 0,0 l/m² 0 min 0 W/m² 22,5 km/h (4 Bft) 95,74 %
18.03.2026 03:50 8,3 °C 7,2 °C 3,9 °C 85 % 1022,9 hPa 0,0 l/m² 0 min 0 W/m² 16,1 km/h (3 Bft) 95,74 %
18.03.2026 03:52 8,3 °C 7,2 °C 3,9 °C 85 % 1023,0 hPa 0,0 l/m² 0 min 0 W/m² 16,1 km/h (3 Bft) 93,62 %
18.03.2026 03:54 8,3 °C 7,2 °C 3,9 °C 85 % 1023,1 hPa 0,0 l/m² 0 min 0 W/m² 12,9 km/h (3 Bft) 93,62 %
18.03.2026 03:56 8,3 °C 7,2 °C 3,9 °C 85 % 1023,1 hPa 0,0 l/m² 0 min 0 W/m² 29,0 km/h (5 Bft) 95,65 %
18.03.2026 03:58 8,2 °C 7,2 °C 3,9 °C 85 % 1023,1 hPa 0,0 l/m² 0 min 0 W/m² 16,1 km/h (3 Bft) 95,74 %
18.03.2026 04:00 8,2 °C 7,2 °C 3,9 °C 85 % 1023,1 hPa 0,0 l/m² 0 min 0 W/m² 16,1 km/h (3 Bft) 93,62 %
18.03.2026 04:02 8,2 °C 7,2 °C 3,9 °C 85 % 1023,1 hPa 0,0 l/m² 0 min 0 W/m² 16,1 km/h (3 Bft) 96,97 %
18.03.2026 04:04 8,2 °C 7,2 °C 3,3 °C 85 % 1023,1 hPa 0,0 l/m² 0 min 0 W/m² 16,1 km/h (3 Bft) 97,96 %
18.03.2026 04:06 8,2 °C 7,2 °C 3,9 °C 84 % 1023,1 hPa 0,0 l/m² 0 min 0 W/m² 22,5 km/h (4 Bft) 93,48 %
18.03.2026 04:08 8,2 °C 7,2 °C 3,3 °C 84 % 1023,1 hPa 0,0 l/m² 0 min 0 W/m² 12,9 km/h (3 Bft) 91,49 %
18.03.2026 04:10 8,1 °C 7,2 °C 3,3 °C 84 % 1023,1 hPa 0,0 l/m² 0 min 0 W/m² 12,9 km/h (3 Bft) 95,74 %
18.03.2026 04:12 8,1 °C 7,2 °C 3,3 °C 84 % 1023,2 hPa 0,0 l/m² 0 min 0 W/m² 16,1 km/h (3 Bft) 95,74 %
18.03.2026 04:14 8,1 °C 7,2 °C 3,3 °C 84 % 1023,2 hPa 0,0 l/m² 0 min 0 W/m² 25,7 km/h (4 Bft) 93,62 %
18.03.2026 04:16 8,1 °C 7,2 °C 3,3 °C 84 % 1023,2 hPa 0,0 l/m² 0 min 0 W/m² 16,1 km/h (3 Bft) 95,74 %
18.03.2026 04:18 8,1 °C 7,2 °C 3,3 °C 84 % 1023,3 hPa 0,0 l/m² 0 min 0 W/m² 16,1 km/h (3 Bft) 95,65 %
18.03.2026 04:20 8,1 °C 7,2 °C 3,3 °C 84 % 1023,3 hPa 0,0 l/m² 0 min 0 W/m² 16,1 km/h (3 Bft) 91,49 %
18.03.2026 04:22 8,1 °C 7,2 °C 3,3 °C 84 % 1023,3 hPa 0,0 l/m² 0 min 0 W/m² 16,1 km/h (3 Bft) 95,74 %
18.03.2026 04:24 8,1 °C 7,2 °C 3,3 °C 84 % 1023,3 hPa 0,0 l/m² 0 min 0 W/m² 12,9 km/h (3 Bft) 95,74 %
18.03.2026 04:26 8,0 °C 7,2 °C 3,3 °C 84 % 1023,3 hPa 0,0 l/m² 0 min 0 W/m² 16,1 km/h (3 Bft) 95,74 %
18.03.2026 04:28 8,0 °C 7,2 °C 3,3 °C 84 % 1023,4 hPa 0,0 l/m² 0 min 0 W/m² 19,3 km/h (3 Bft) 97,87 %
18.03.2026 04:30 7,9 °C 7,2 °C 3,3 °C 84 % 1023,4 hPa 0,0 l/m² 0 min 0 W/m² 12,9 km/h (3 Bft) 97,83 %
18.03.2026 04:32 7,9 °C 7,2 °C 3,3 °C 84 % 1023,4 hPa 0,0 l/m² 0 min 0 W/m² 12,9 km/h (3 Bft) 91,49 %
18.03.2026 04:34 7,9 °C 7,2 °C 3,3 °C 84 % 1023,4 hPa 0,0 l/m² 0 min 0 W/m² 12,9 km/h (3 Bft) 97,87 %
18.03.2026 04:39 7,9 °C 7,2 °C 3,3 °C 84 % 1023,5 hPa 0,0 l/m² 0 min 0 W/m² 19,3 km/h (3 Bft) 98,46 %
18.03.2026 04:40 7,9 °C 7,2 °C 3,3 °C 84 % 1023,5 hPa 0,0 l/m² 0 min 0 W/m² 12,9 km/h (3 Bft) 100,00 %
18.03.2026 04:42 7,8 °C 7,2 °C 3,3 °C 84 % 1023,5 hPa 0,0 l/m² 0 min 0 W/m² 12,9 km/h (3 Bft) 100,00 %
18.03.2026 04:44 7,8 °C 7,2 °C 3,3 °C 84 % 1023,5 hPa 0,0 l/m² 0 min 0 W/m² 16,1 km/h (3 Bft) 91,49 %
18.03.2026 04:46 7,8 °C 7,2 °C 3,3 °C 84 % 1023,6 hPa 0,0 l/m² 0 min 0 W/m² 9,7 km/h (2 Bft) 97,87 %
18.03.2026 04:48 7,8 °C 6,7 °C 3,3 °C 84 % 1023,6 hPa 0,0 l/m² 0 min 0 W/m² 12,9 km/h (3 Bft) 100,00 %
18.03.2026 04:50 7,8 °C 6,7 °C 3,3 °C 84 % 1023,6 hPa 0,0 l/m² 0 min 0 W/m² 19,3 km/h (3 Bft) 95,74 %
18.03.2026 04:52 7,8 °C 6,7 °C 3,3 °C 84 % 1023,6 hPa 0,0 l/m² 0 min 0 W/m² 22,5 km/h (4 Bft) 100,00 %
18.03.2026 04:54 7,8 °C 6,7 °C 3,3 °C 84 % 1023,6 hPa 0,0 l/m² 0 min 0 W/m² 12,9 km/h (3 Bft) 97,83 %
18.03.2026 04:56 7,7 °C 6,7 °C 3,3 °C 84 % 1023,6 hPa 0,0 l/m² 0 min 0 W/m² 19,3 km/h (3 Bft) 97,87 %
18.03.2026 04:58 7,7 °C 6,7 °C 3,3 °C 84 % 1023,6 hPa 0,0 l/m² 0 min 0 W/m² 16,1 km/h (3 Bft) 100,00 %
18.03.2026 05:00 7,7 °C 6,7 °C 3,3 °C 84 % 1023,7 hPa 0,0 l/m² 0 min 0 W/m² 16,1 km/h (3 Bft) 100,00 %
18.03.2026 05:02 7,7 °C 6,7 °C 3,3 °C 84 % 1023,7 hPa 0,0 l/m² 0 min 0 W/m² 16,1 km/h (3 Bft) 95,74 %
18.03.2026 05:04 7,7 °C 6,7 °C 3,3 °C 84 % 1023,7 hPa 0,0 l/m² 0 min 0 W/m² 16,1 km/h (3 Bft) 100,00 %
18.03.2026 05:06 7,7 °C 6,7 °C 3,3 °C 84 % 1023,7 hPa 0,0 l/m² 0 min 0 W/m² 12,9 km/h (3 Bft) 100,00 %
18.03.2026 05:08 7,7 °C 6,7 °C 3,3 °C 83 % 1023,7 hPa 0,0 l/m² 0 min 0 W/m² 9,7 km/h (2 Bft) 97,87 %
18.03.2026 05:10 7,6 °C 6,7 °C 2,8 °C 83 % 1023,8 hPa 0,0 l/m² 0 min 0 W/m² 12,9 km/h (3 Bft) 100,00 %
18.03.2026 05:12 7,6 °C 6,7 °C 2,8 °C 83 % 1023,7 hPa 0,0 l/m² 0 min 0 W/m² 12,9 km/h (3 Bft) 100,00 %
18.03.2026 05:14 7,6 °C 6,7 °C 2,8 °C 83 % 1023,8 hPa 0,0 l/m² 0 min 0 W/m² 6,4 km/h (2 Bft) 97,87 %
18.03.2026 05:16 7,6 °C 6,7 °C 2,8 °C 83 % 1023,8 hPa 0,0 l/m² 0 min 0 W/m² 6,4 km/h (2 Bft) 97,83 %
18.03.2026 05:18 7,6 °C 6,7 °C 2,8 °C 83 % 1023,8 hPa 0,0 l/m² 0 min 0 W/m² 16,1 km/h (3 Bft) 100,00 %
18.03.2026 05:20 7,5 °C 6,7 °C 2,8 °C 83 % 1023,8 hPa 0,0 l/m² 0 min 0 W/m² 19,3 km/h (3 Bft) 100,00 %
18.03.2026 05:22 7,5 °C 6,7 °C 2,8 °C 83 % 1023,8 hPa 0,0 l/m² 0 min 0 W/m² 9,7 km/h (2 Bft) 100,00 %
18.03.2026 05:24 7,4 °C 6,7 °C 2,8 °C 83 % 1023,8 hPa 0,0 l/m² 0 min 0 W/m² 12,9 km/h (3 Bft) 97,87 %
18.03.2026 05:26 7,4 °C 6,1 °C 2,8 °C 83 % 1023,8 hPa 0,0 l/m² 0 min 0 W/m² 12,9 km/h (3 Bft) 97,87 %
18.03.2026 05:28 7,4 °C 6,7 °C 2,8 °C 83 % 1023,8 hPa 0,0 l/m² 0 min 0 W/m² 12,9 km/h (3 Bft) 100,00 %
18.03.2026 05:30 7,4 °C 6,7 °C 2,8 °C 83 % 1023,9 hPa 0,0 l/m² 0 min 0 W/m² 12,9 km/h (3 Bft) 100,00 %
18.03.2026 05:32 7,3 °C 6,1 °C 2,8 °C 83 % 1023,9 hPa 0,0 l/m² 0 min 0 W/m² 6,4 km/h (2 Bft) 97,87 %
18.03.2026 05:34 7,3 °C 6,1 °C 2,8 °C 83 % 1023,9 hPa 0,0 l/m² 0 min 0 W/m² 9,7 km/h (2 Bft) 100,00 %
18.03.2026 05:36 7,3 °C 6,1 °C 2,8 °C 83 % 1023,9 hPa 0,0 l/m² 0 min 0 W/m² 12,9 km/h (3 Bft) 100,00 %
18.03.2026 05:38 7,3 °C 6,1 °C 2,8 °C 83 % 1023,9 hPa 0,0 l/m² 0 min 0 W/m² 6,4 km/h (2 Bft) 100,00 %
18.03.2026 05:40 7,3 °C 6,1 °C 2,8 °C 83 % 1023,9 hPa 0,0 l/m² 0 min 0 W/m² 6,4 km/h (2 Bft) 100,00 %
18.03.2026 05:42 7,2 °C 6,1 °C 2,8 °C 83 % 1023,9 hPa 0,0 l/m² 0 min 0 W/m² 12,9 km/h (3 Bft) 100,00 %
18.03.2026 05:44 7,2 °C 6,1 °C 2,8 °C 83 % 1024,0 hPa 0,0 l/m² 0 min 0 W/m² 6,4 km/h (2 Bft) 100,00 %
18.03.2026 05:46 7,2 °C 6,1 °C 2,8 °C 83 % 1024,0 hPa 0,0 l/m² 0 min 0 W/m² 12,9 km/h (3 Bft) 97,87 %
18.03.2026 05:48 7,2 °C 6,1 °C 2,8 °C 83 % 1024,0 hPa 0,0 l/m² 0 min 0 W/m² 12,9 km/h (3 Bft) 100,00 %
18.03.2026 05:50 7,1 °C 6,1 °C 2,8 °C 83 % 1024,0 hPa 0,0 l/m² 0 min 0 W/m² 12,9 km/h (3 Bft) 97,87 %
18.03.2026 05:52 7,1 °C 6,1 °C 2,2 °C 83 % 1024,0 hPa 0,0 l/m² 0 min 0 W/m² 6,4 km/h (2 Bft) 97,83 %
18.03.2026 05:54 7,1 °C 6,1 °C 2,2 °C 83 % 1024,0 hPa 0,0 l/m² 0 min 0 W/m² 12,9 km/h (3 Bft) 100,00 %
18.03.2026 05:56 7,1 °C 6,1 °C 2,2 °C 83 % 1024,0 hPa 0,0 l/m² 0 min 0 W/m² 12,9 km/h (3 Bft) 97,87 %
18.03.2026 05:58 7,1 °C 6,1 °C 2,2 °C 83 % 1024,0 hPa 0,0 l/m² 0 min 0 W/m² 12,9 km/h (3 Bft) 97,87 %
18.03.2026 06:00 7,0 °C 6,1 °C 2,2 °C 83 % 1023,9 hPa 0,0 l/m² 0 min 0 W/m² 12,9 km/h (3 Bft) 95,74 %
18.03.2026 06:02 7,0 °C 6,1 °C 2,2 °C 83 % 1023,9 hPa 0,0 l/m² 0 min 0 W/m² 12,9 km/h (3 Bft) 95,74 %
18.03.2026 06:04 6,9 °C 6,1 °C 2,2 °C 83 % 1024,0 hPa 0,0 l/m² 0 min 0 W/m² 6,4 km/h (2 Bft) 97,92 %
18.03.2026 06:07 6,9 °C 6,1 °C 2,2 °C 83 % 1024,0 hPa 0,0 l/m² 0 min 0 W/m² 6,4 km/h (2 Bft) 98,63 %
18.03.2026 06:08 6,9 °C 6,1 °C 2,2 °C 83 % 1024,0 hPa 0,0 l/m² 0 min 0 W/m² 12,9 km/h (3 Bft) 95,65 %
18.03.2026 06:12 6,8 °C 6,1 °C 2,2 °C 83 % 1024,0 hPa 0,0 l/m² 0 min 0 W/m² 12,9 km/h (3 Bft) 93,88 %
18.03.2026 06:14 6,8 °C 5,6 °C 2,2 °C 83 % 1024,1 hPa 0,0 l/m² 0 min 0 W/m² 12,9 km/h (3 Bft) 95,74 %
18.03.2026 06:16 6,8 °C 5,6 °C 2,2 °C 83 % 1024,1 hPa 0,0 l/m² 0 min 0 W/m² 9,7 km/h (2 Bft) 95,65 %
18.03.2026 06:18 6,8 °C 5,6 °C 2,2 °C 83 % 1024,1 hPa 0,0 l/m² 0 min 0 W/m² 6,4 km/h (2 Bft) 92,73 %
18.03.2026 06:20 6,8 °C 5,6 °C 2,2 °C 83 % 1024,2 hPa 0,0 l/m² 0 min 0 W/m² 12,9 km/h (3 Bft) 95,74 %
18.03.2026 06:22 6,7 °C 5,6 °C 2,2 °C 83 % 1024,2 hPa 0,0 l/m² 0 min 0 W/m² 6,4 km/h (2 Bft) 93,62 %
18.03.2026 06:24 6,7 °C 5,6 °C 2,2 °C 83 % 1024,3 hPa 0,0 l/m² 0 min 0 W/m² 6,4 km/h (2 Bft) 95,92 %
18.03.2026 06:26 6,7 °C 5,6 °C 2,2 °C 83 % 1024,3 hPa 0,0 l/m² 0 min 0 W/m² 12,9 km/h (3 Bft) 91,89 %
18.03.2026 06:28 6,7 °C 5,6 °C 2,2 °C 83 % 1024,3 hPa 0,0 l/m² 0 min 0 W/m² 12,9 km/h (3 Bft) 95,65 %
18.03.2026 06:30 6,6 °C 5,6 °C 2,2 °C 83 % 1024,4 hPa 0,0 l/m² 0 min 0 W/m² 12,9 km/h (3 Bft) 93,62 %
18.03.2026 06:32 6,6 °C 5,6 °C 2,2 °C 83 % 1024,5 hPa 0,0 l/m² 0 min 0 W/m² 12,9 km/h (3 Bft) 95,74 %
18.03.2026 06:34 6,6 °C 5,6 °C 2,2 °C 82 % 1024,6 hPa 0,0 l/m² 0 min 0 W/m² 6,4 km/h (2 Bft) 95,74 %
18.03.2026 06:36 6,6 °C 5,6 °C 2,2 °C 82 % 1024,5 hPa 0,0 l/m² 0 min 0 W/m² 12,9 km/h (3 Bft) 93,62 %
18.03.2026 06:38 6,6 °C 5,6 °C 2,2 °C 82 % 1024,6 hPa 0,0 l/m² 0 min 0 W/m² 3,2 km/h (1 Bft) 93,62 %
18.03.2026 06:40 6,6 °C 5,6 °C 2,2 °C 82 % 1024,7 hPa 0,0 l/m² 0 min 0 W/m² 6,4 km/h (2 Bft) 97,83 %
18.03.2026 06:42 6,6 °C 5,6 °C 2,2 °C 82 % 1024,7 hPa 0,0 l/m² 0 min 0 W/m² 6,4 km/h (2 Bft) 94,55 %
18.03.2026 06:44 6,5 °C 5,6 °C 2,2 °C 82 % 1024,8 hPa 0,0 l/m² 0 min 2 W/m² 6,4 km/h (2 Bft) 96,00 %
18.03.2026 06:46 6,5 °C 5,6 °C 1,7 °C 82 % 1024,8 hPa 0,0 l/m² 0 min 5 W/m² 3,2 km/h (1 Bft) 95,65 %
18.03.2026 06:48 6,5 °C 5,6 °C 1,7 °C 82 % 1024,8 hPa 0,0 l/m² 0 min 5 W/m² 12,9 km/h (3 Bft) 95,74 %
18.03.2026 06:50 6,5 °C 5,6 °C 2,2 °C 82 % 1024,8 hPa 0,0 l/m² 0 min 6 W/m² 6,4 km/h (2 Bft) 94,59 %
18.03.2026 06:52 6,4 °C 5,6 °C 1,7 °C 82 % 1024,8 hPa 0,0 l/m² 0 min 7 W/m² 3,2 km/h (1 Bft) 95,65 %
18.03.2026 06:54 6,4 °C 5,6 °C 1,7 °C 82 % 1024,8 hPa 0,0 l/m² 0 min 7 W/m² 6,4 km/h (2 Bft) 95,74 %
18.03.2026 06:56 6,4 °C 5,6 °C 1,7 °C 82 % 1024,8 hPa 0,0 l/m² 0 min 9 W/m² 6,4 km/h (2 Bft) 93,62 %
18.03.2026 06:58 6,4 °C 5,6 °C 1,7 °C 82 % 1024,9 hPa 0,0 l/m² 0 min 9 W/m² 6,4 km/h (2 Bft) 93,62 %
18.03.2026 07:00 6,3 °C 5,6 °C 1,7 °C 82 % 1024,9 hPa 0,0 l/m² 0 min 10 W/m² 3,2 km/h (1 Bft) 95,74 %
18.03.2026 07:02 6,3 °C 5,6 °C 1,7 °C 82 % 1024,8 hPa 0,0 l/m² 0 min 11 W/m² 12,9 km/h (3 Bft) 95,74 %
18.03.2026 07:04 6,3 °C 5,6 °C 1,7 °C 82 % 1024,9 hPa 0,0 l/m² 0 min 11 W/m² 3,2 km/h (1 Bft) 97,87 %
18.03.2026 07:06 6,3 °C 5,6 °C 1,7 °C 82 % 1025,0 hPa 0,0 l/m² 0 min 12 W/m² 6,4 km/h (2 Bft) 100,00 %
18.03.2026 07:08 6,3 °C 5,6 °C 1,7 °C 82 % 1025,0 hPa 0,0 l/m² 0 min 12 W/m² 3,2 km/h (1 Bft) 100,00 %
18.03.2026 07:10 6,3 °C 5,6 °C 1,7 °C 82 % 1025,0 hPa 0,0 l/m² 0 min 12 W/m² 3,2 km/h (1 Bft) 100,00 %
18.03.2026 07:12 6,2 °C 5,0 °C 1,7 °C 82 % 1025,1 hPa 0,0 l/m² 0 min 14 W/m² 3,2 km/h (1 Bft) 100,00 %
18.03.2026 07:14 6,2 °C 5,6 °C 1,7 °C 83 % 1025,1 hPa 0,0 l/m² 0 min 14 W/m² 6,4 km/h (2 Bft) 97,83 %
18.03.2026 07:16 6,2 °C 5,6 °C 1,7 °C 83 % 1025,2 hPa 0,0 l/m² 0 min 14 W/m² 3,2 km/h (1 Bft) 100,00 %
18.03.2026 07:18 6,2 °C 5,6 °C 1,7 °C 82 % 1025,2 hPa 0,0 l/m² 0 min 16 W/m² 3,2 km/h (1 Bft) 100,00 %
18.03.2026 07:20 6,2 °C 5,6 °C 1,7 °C 82 % 1025,2 hPa 0,0 l/m² 0 min 16 W/m² 3,2 km/h (1 Bft) 100,00 %
18.03.2026 07:22 6,2 °C 5,6 °C 1,7 °C 82 % 1025,3 hPa 0,0 l/m² 0 min 16 W/m² 6,4 km/h (2 Bft) 97,83 %
18.03.2026 07:24 6,2 °C 5,6 °C 1,7 °C 82 % 1025,3 hPa 0,0 l/m² 0 min 18 W/m² 6,4 km/h (2 Bft) 100,00 %
18.03.2026 07:26 6,2 °C 5,6 °C 1,7 °C 82 % 1025,4 hPa 0,0 l/m² 0 min 18 W/m² 3,2 km/h (1 Bft) 100,00 %
18.03.2026 07:28 6,2 °C 5,6 °C 1,7 °C 82 % 1025,4 hPa 0,0 l/m² 0 min 18 W/m² 6,4 km/h (2 Bft) 97,87 %
18.03.2026 07:30 6,2 °C 5,6 °C 1,7 °C 82 % 1025,5 hPa 0,0 l/m² 0 min 19 W/m² 3,2 km/h (1 Bft) 100,00 %
18.03.2026 07:32 6,2 °C 5,6 °C 1,7 °C 82 % 1025,5 hPa 0,0 l/m² 0 min 19 W/m² 16,1 km/h (3 Bft) 97,14 %
18.03.2026 07:34 6,2 °C 5,6 °C 1,7 °C 82 % 1025,5 hPa 0,0 l/m² 0 min 19 W/m² 3,2 km/h (1 Bft) 100,00 %
18.03.2026 07:36 6,2 °C 5,6 °C 1,7 °C 82 % 1025,5 hPa 0,0 l/m² 0 min 20 W/m² 3,2 km/h (1 Bft) 97,87 %
18.03.2026 07:38 6,2 °C 5,6 °C 2,2 °C 82 % 1025,6 hPa 0,0 l/m² 0 min 21 W/m² 19,3 km/h (3 Bft) 100,00 %
18.03.2026 07:40 6,2 °C 5,6 °C 2,2 °C 82 % 1025,5 hPa 0,0 l/m² 0 min 21 W/m² 6,4 km/h (2 Bft) 100,00 %
18.03.2026 07:42 6,2 °C 6,1 °C 2,2 °C 82 % 1025,5 hPa 0,0 l/m² 0 min 21 W/m² 12,9 km/h (3 Bft) 97,87 %
18.03.2026 07:44 6,2 °C 6,1 °C 2,2 °C 82 % 1025,5 hPa 0,0 l/m² 0 min 23 W/m² 6,4 km/h (2 Bft) 95,74 %
18.03.2026 07:46 6,3 °C 6,1 °C 2,2 °C 82 % 1025,6 hPa 0,0 l/m² 0 min 23 W/m² 16,1 km/h (3 Bft) 97,87 %
18.03.2026 07:48 6,3 °C 6,1 °C 2,2 °C 81 % 1025,6 hPa 0,0 l/m² 0 min 23 W/m² 16,1 km/h (3 Bft) 95,74 %
18.03.2026 07:50 6,3 °C 6,1 °C 2,2 °C 81 % 1025,6 hPa 0,0 l/m² 0 min 24 W/m² 12,9 km/h (3 Bft) 97,83 %
18.03.2026 07:52 6,4 °C 6,1 °C 2,2 °C 81 % 1025,7 hPa 0,0 l/m² 0 min 25 W/m² 16,1 km/h (3 Bft) 97,87 %
18.03.2026 07:54 6,4 °C 6,1 °C 2,2 °C 81 % 1025,7 hPa 0,0 l/m² 0 min 25 W/m² 16,1 km/h (3 Bft) 97,87 %
18.03.2026 07:56 6,5 °C 6,1 °C 2,2 °C 81 % 1025,7 hPa 0,0 l/m² 0 min 25 W/m² 9,7 km/h (2 Bft) 97,87 %
18.03.2026 07:58 6,5 °C 6,7 °C 2,8 °C 81 % 1025,7 hPa 0,0 l/m² 0 min 26 W/m² 12,9 km/h (3 Bft) 97,87 %
18.03.2026 08:00 6,6 °C 6,7 °C 2,8 °C 80 % 1025,8 hPa 0,0 l/m² 0 min 26 W/m² 12,9 km/h (3 Bft) 97,83 %
18.03.2026 08:02 6,6 °C 6,7 °C 2,8 °C 80 % 1025,8 hPa 0,0 l/m² 0 min 26 W/m² 9,7 km/h (2 Bft) 95,74 %
18.03.2026 08:04 6,7 °C 6,7 °C 2,8 °C 80 % 1025,8 hPa 0,0 l/m² 0 min 27 W/m² 9,7 km/h (2 Bft) 97,87 %
18.03.2026 08:06 6,7 °C 6,7 °C 2,8 °C 80 % 1025,8 hPa 0,0 l/m² 0 min 28 W/m² 16,1 km/h (3 Bft) 96,43 %
18.03.2026 08:08 6,8 °C 6,7 °C 2,8 °C 80 % 1025,8 hPa 0,0 l/m² 0 min 28 W/m² 12,9 km/h (3 Bft) 95,65 %
18.03.2026 08:10 6,8 °C 6,7 °C 2,8 °C 80 % 1025,8 hPa 0,0 l/m² 0 min 28 W/m² 12,9 km/h (3 Bft) 100,00 %
18.03.2026 08:12 6,9 °C 6,7 °C 2,8 °C 79 % 1025,9 hPa 0,0 l/m² 0 min 28 W/m² 19,3 km/h (3 Bft) 97,87 %
18.03.2026 08:14 6,9 °C 6,7 °C 2,8 °C 79 % 1025,9 hPa 0,0 l/m² 0 min 30 W/m² 12,9 km/h (3 Bft) 97,87 %
18.03.2026 08:16 7,0 °C 6,7 °C 2,8 °C 79 % 1025,9 hPa 0,0 l/m² 0 min 30 W/m² 16,1 km/h (3 Bft) 95,74 %
18.03.2026 08:18 7,1 °C 7,2 °C 2,8 °C 79 % 1026,0 hPa 0,0 l/m² 0 min 30 W/m² 19,3 km/h (3 Bft) 97,87 %
18.03.2026 08:20 7,1 °C 7,2 °C 2,8 °C 78 % 1026,0 hPa 0,0 l/m² 0 min 30 W/m² 16,1 km/h (3 Bft) 100,00 %
18.03.2026 08:22 7,2 °C 7,2 °C 2,8 °C 78 % 1026,0 hPa 0,0 l/m² 0 min 32 W/m² 16,1 km/h (3 Bft) 100,00 %
18.03.2026 08:24 7,2 °C 7,2 °C 3,3 °C 78 % 1026,0 hPa 0,0 l/m² 0 min 32 W/m² 12,9 km/h (3 Bft) 97,87 %
18.03.2026 08:26 7,3 °C 7,2 °C 3,3 °C 78 % 1026,0 hPa 0,0 l/m² 0 min 32 W/m² 16,1 km/h (3 Bft) 100,00 %
18.03.2026 08:28 7,3 °C 7,2 °C 3,3 °C 78 % 1026,0 hPa 0,0 l/m² 0 min 33 W/m² 16,1 km/h (3 Bft) 100,00 %
18.03.2026 08:30 7,4 °C 7,2 °C 3,3 °C 77 % 1026,1 hPa 0,0 l/m² 0 min 33 W/m² 12,9 km/h (3 Bft) 100,00 %
18.03.2026 08:32 7,4 °C 7,2 °C 3,3 °C 77 % 1026,1 hPa 0,0 l/m² 0 min 33 W/m² 16,1 km/h (3 Bft) 100,00 %
18.03.2026 08:34 7,5 °C 7,2 °C 3,3 °C 77 % 1026,2 hPa 0,0 l/m² 0 min 33 W/m² 19,3 km/h (3 Bft) 100,00 %
18.03.2026 08:36 7,6 °C 7,2 °C 3,3 °C 76 % 1026,2 hPa 0,0 l/m² 0 min 35 W/m² 16,1 km/h (3 Bft) 100,00 %
18.03.2026 08:38 7,6 °C 7,2 °C 3,3 °C 76 % 1026,3 hPa 0,0 l/m² 0 min 35 W/m² 16,1 km/h (3 Bft) 100,00 %
18.03.2026 08:40 7,7 °C 7,8 °C 3,3 °C 75 % 1026,3 hPa 0,0 l/m² 0 min 35 W/m² 19,3 km/h (3 Bft) 100,00 %
18.03.2026 08:42 7,7 °C 7,8 °C 3,3 °C 75 % 1026,3 hPa 0,0 l/m² 0 min 49 W/m² 19,3 km/h (3 Bft) 100,00 %
18.03.2026 08:44 7,8 °C 7,8 °C 3,3 °C 75 % 1026,3 hPa 0,0 l/m² 0 min 84 W/m² 12,9 km/h (3 Bft) 100,00 %
18.03.2026 08:46 7,8 °C 7,8 °C 3,3 °C 75 % 1026,4 hPa 0,0 l/m² 2 min 157 W/m² 12,9 km/h (3 Bft) 97,83 %
18.03.2026 08:48 7,9 °C 8,3 °C 3,9 °C 75 % 1026,4 hPa 0,0 l/m² 2 min 275 W/m² 16,1 km/h (3 Bft) 98,00 %
18.03.2026 08:50 7,9 °C 9,4 °C 3,9 °C 75 % 1026,4 hPa 0,0 l/m² 2 min 216 W/m² 16,1 km/h (3 Bft) 97,96 %
18.03.2026 08:52 8,1 °C 10,0 °C 3,9 °C 75 % 1026,4 hPa 0,0 l/m² 2 min 237 W/m² 16,1 km/h (3 Bft) 100,00 %
18.03.2026 08:54 8,2 °C 11,1 °C 3,9 °C 75 % 1026,4 hPa 0,0 l/m² 2 min 165 W/m² 12,9 km/h (3 Bft) 100,00 %
18.03.2026 08:56 8,3 °C 12,2 °C 4,4 °C 74 % 1026,4 hPa 0,0 l/m² 2 min 272 W/m² 22,5 km/h (4 Bft) 100,00 %
18.03.2026 08:58 8,4 °C 12,2 °C 4,4 °C 73 % 1026,4 hPa 0,0 l/m² 2 min 294 W/m² 19,3 km/h (3 Bft) 97,96 %
18.03.2026 09:00 8,6 °C 13,3 °C 4,4 °C 73 % 1026,5 hPa 0,0 l/m² 2 min 194 W/m² 16,1 km/h (3 Bft) 100,00 %
18.03.2026 09:02 8,7 °C 14,4 °C 5,0 °C 72 % 1026,5 hPa 0,0 l/m² 2 min 236 W/m² 25,7 km/h (4 Bft) 100,00 %
18.03.2026 09:04 8,8 °C 14,4 °C 5,0 °C 71 % 1026,5 hPa 0,0 l/m² 2 min 279 W/m² 19,3 km/h (3 Bft) 100,00 %
18.03.2026 09:06 9,0 °C 14,4 °C 5,6 °C 71 % 1026,5 hPa 0,0 l/m² 2 min 278 W/m² 22,5 km/h (4 Bft) 97,87 %
18.03.2026 09:08 9,1 °C 14,4 °C 6,1 °C 70 % 1026,7 hPa 0,0 l/m² 2 min 296 W/m² 19,3 km/h (3 Bft) 97,87 %
18.03.2026 09:10 9,2 °C 15,6 °C 6,7 °C 69 % 1026,6 hPa 0,0 l/m² 2 min 271 W/m² 19,3 km/h (3 Bft) 97,14 %
18.03.2026 09:12 9,3 °C 15,0 °C 6,7 °C 69 % 1026,7 hPa 0,0 l/m² 2 min 294 W/m² 19,3 km/h (3 Bft) 97,83 %
18.03.2026 09:14 9,4 °C 15,0 °C 7,2 °C 69 % 1026,7 hPa 0,0 l/m² 2 min 278 W/m² 19,3 km/h (3 Bft) 96,30 %
18.03.2026 09:16 9,5 °C 14,4 °C 6,7 °C 68 % 1026,7 hPa 0,0 l/m² 2 min 262 W/m² 22,5 km/h (4 Bft) 93,62 %
18.03.2026 09:18 9,6 °C 13,9 °C 6,7 °C 67 % 1026,8 hPa 0,0 l/m² 2 min 295 W/m² 19,3 km/h (3 Bft) 95,74 %
18.03.2026 09:20 9,7 °C 14,4 °C 6,7 °C 67 % 1026,8 hPa 0,0 l/m² 2 min 363 W/m² 22,5 km/h (4 Bft) 97,96 %
18.03.2026 09:22 9,8 °C 14,4 °C 7,2 °C 66 % 1026,8 hPa 0,0 l/m² 2 min 342 W/m² 19,3 km/h (3 Bft) 97,96 %
18.03.2026 09:24 9,8 °C 14,4 °C 7,2 °C 65 % 1026,8 hPa 0,0 l/m² 2 min 325 W/m² 25,7 km/h (4 Bft) 97,87 %
18.03.2026 09:26 9,9 °C 14,4 °C 6,7 °C 65 % 1026,8 hPa 0,0 l/m² 2 min 318 W/m² 19,3 km/h (3 Bft) 93,62 %
18.03.2026 09:28 10,0 °C 14,4 °C 7,2 °C 66 % 1026,9 hPa 0,0 l/m² 2 min 312 W/m² 19,3 km/h (3 Bft) 95,74 %
18.03.2026 09:30 10,1 °C 14,4 °C 7,2 °C 65 % 1026,9 hPa 0,0 l/m² 2 min 269 W/m² 19,3 km/h (3 Bft) 97,87 %
18.03.2026 09:32 10,1 °C 13,9 °C 6,7 °C 65 % 1026,9 hPa 0,0 l/m² 0 min 154 W/m² 19,3 km/h (3 Bft) 95,65 %
18.03.2026 09:34 10,2 °C 13,9 °C 6,7 °C 64 % 1026,9 hPa 0,0 l/m² 2 min 219 W/m² 16,1 km/h (3 Bft) 93,62 %
18.03.2026 09:36 10,2 °C 14,4 °C 7,2 °C 64 % 1027,0 hPa 0,0 l/m² 2 min 254 W/m² 16,1 km/h (3 Bft) 93,62 %
18.03.2026 09:38 10,3 °C 13,3 °C 7,2 °C 64 % 1026,9 hPa 0,0 l/m² 2 min 251 W/m² 22,5 km/h (4 Bft) 95,74 %
18.03.2026 09:40 10,3 °C 12,8 °C 7,2 °C 64 % 1027,0 hPa 0,0 l/m² 0 min 122 W/m² 22,5 km/h (4 Bft) 95,74 %
18.03.2026 09:42 10,4 °C 12,8 °C 7,2 °C 64 % 1027,0 hPa 0,0 l/m² 0 min 196 W/m² 22,5 km/h (4 Bft) 95,74 %
18.03.2026 09:44 10,5 °C 13,9 °C 7,2 °C 63 % 1027,0 hPa 0,0 l/m² 2 min 252 W/m² 25,7 km/h (4 Bft) 91,30 %
18.03.2026 09:46 10,6 °C 14,4 °C 7,2 °C 63 % 1027,0 hPa 0,0 l/m² 2 min 250 W/m² 19,3 km/h (3 Bft) 93,62 %
18.03.2026 09:48 10,6 °C 13,9 °C 6,7 °C 63 % 1027,0 hPa 0,0 l/m² 2 min 374 W/m² 22,5 km/h (4 Bft) 93,62 %
18.03.2026 09:50 10,6 °C 14,4 °C 6,7 °C 63 % 1027,0 hPa 0,0 l/m² 2 min 423 W/m² 19,3 km/h (3 Bft) 95,74 %
18.03.2026 09:52 10,7 °C 13,3 °C 6,7 °C 62 % 1027,0 hPa 0,0 l/m² 2 min 243 W/m² 19,3 km/h (3 Bft) 95,74 %
18.03.2026 09:54 10,7 °C 12,8 °C 6,7 °C 62 % 1027,0 hPa 0,0 l/m² 2 min 447 W/m² 19,3 km/h (3 Bft) 95,74 %
18.03.2026 09:56 10,7 °C 13,3 °C 6,7 °C 62 % 1027,0 hPa 0,0 l/m² 2 min 288 W/m² 22,5 km/h (4 Bft) 95,65 %
18.03.2026 09:58 10,7 °C 13,3 °C 7,2 °C 61 % 1026,9 hPa 0,0 l/m² 0 min 177 W/m² 16,1 km/h (3 Bft) 93,62 %
18.03.2026 10:00 10,8 °C 13,9 °C 7,2 °C 61 % 1027,0 hPa 0,0 l/m² 0 min 114 W/m² 25,7 km/h (4 Bft) 93,62 %
18.03.2026 10:02 10,8 °C 12,8 °C 7,2 °C 60 % 1027,0 hPa 0,0 l/m² 2 min 286 W/m² 22,5 km/h (4 Bft) 93,62 %
18.03.2026 10:04 10,8 °C 12,8 °C 7,2 °C 60 % 1027,0 hPa 0,0 l/m² 2 min 256 W/m² 16,1 km/h (3 Bft) 95,83 %
18.03.2026 10:06 10,9 °C 12,8 °C 7,2 °C 60 % 1027,0 hPa 0,0 l/m² 2 min 363 W/m² 22,5 km/h (4 Bft) 90,48 %
18.03.2026 10:08 10,9 °C 13,3 °C 7,8 °C 60 % 1027,0 hPa 0,0 l/m² 2 min 454 W/m² 25,7 km/h (4 Bft) 95,65 %
18.03.2026 10:10 10,9 °C 13,9 °C 7,8 °C 60 % 1027,0 hPa 0,0 l/m² 2 min 296 W/m² 22,5 km/h (4 Bft) 97,22 %
18.03.2026 10:12 11,0 °C 14,4 °C 8,3 °C 59 % 1027,0 hPa 0,0 l/m² 2 min 256 W/m² 19,3 km/h (3 Bft) 95,65 %
18.03.2026 10:14 11,1 °C 13,9 °C 8,3 °C 57 % 1027,0 hPa 0,0 l/m² 2 min 271 W/m² 25,7 km/h (4 Bft) 97,87 %
18.03.2026 10:16 11,1 °C 13,9 °C 8,3 °C 57 % 1027,0 hPa 0,0 l/m² 2 min 298 W/m² 19,3 km/h (3 Bft) 96,61 %
18.03.2026 10:18 11,2 °C 13,9 °C 8,3 °C 57 % 1027,1 hPa 0,0 l/m² 2 min 403 W/m² 25,7 km/h (4 Bft) 100,00 %
18.03.2026 10:20 11,2 °C 13,9 °C 8,9 °C 57 % 1027,0 hPa 0,0 l/m² 2 min 357 W/m² 25,7 km/h (4 Bft) 97,83 %
18.03.2026 10:22 11,3 °C 13,3 °C 9,4 °C 58 % 1027,1 hPa 0,0 l/m² 2 min 284 W/m² 25,7 km/h (4 Bft) 95,74 %
18.03.2026 10:24 11,3 °C 13,3 °C 9,4 °C 58 % 1027,0 hPa 0,0 l/m² 2 min 318 W/m² 25,7 km/h (4 Bft) 93,62 %
18.03.2026 10:26 11,4 °C 13,9 °C 9,4 °C 56 % 1027,1 hPa 0,0 l/m² 2 min 371 W/m² 25,7 km/h (4 Bft) 97,87 %
18.03.2026 10:28 11,4 °C 15,0 °C 9,4 °C 56 % 1027,0 hPa 0,0 l/m² 2 min 397 W/m² 25,7 km/h (4 Bft) 97,14 %
18.03.2026 10:30 11,4 °C 15,0 °C 10,0 °C 55 % 1027,0 hPa 0,0 l/m² 2 min 408 W/m² 25,7 km/h (4 Bft) 97,87 %
18.03.2026 10:32 11,4 °C 15,0 °C 10,6 °C 54 % 1027,1 hPa 0,0 l/m² 0 min 254 W/m² 29,0 km/h (5 Bft) 96,55 %
18.03.2026 10:34 11,4 °C 15,6 °C 10,6 °C 54 % 1027,0 hPa 0,0 l/m² 0 min 192 W/m² 25,7 km/h (4 Bft) 95,74 %
18.03.2026 10:36 11,4 °C 16,1 °C 10,6 °C 54 % 1027,0 hPa 0,0 l/m² 2 min 486 W/m² 25,7 km/h (4 Bft) 97,87 %
18.03.2026 10:38 11,5 °C 16,7 °C 10,6 °C 54 % 1027,0 hPa 0,0 l/m² 2 min 503 W/m² 29,0 km/h (5 Bft) 100,00 %
18.03.2026 10:40 11,6 °C 16,7 °C 10,6 °C 54 % 1027,0 hPa 0,0 l/m² 2 min 418 W/m² 25,7 km/h (4 Bft) 97,14 %
18.03.2026 10:42 11,6 °C 17,2 °C 10,6 °C 53 % 1027,0 hPa 0,0 l/m² 2 min 383 W/m² 41,8 km/h (6 Bft) 97,87 %
18.03.2026 10:44 11,6 °C 17,2 °C 10,6 °C 54 % 1027,0 hPa 0,0 l/m² 2 min 355 W/m² 25,7 km/h (4 Bft) 98,28 %
18.03.2026 10:46 11,7 °C 17,2 °C 10,6 °C 53 % 1027,1 hPa 0,0 l/m² 2 min 322 W/m² 41,8 km/h (6 Bft) 97,22 %
18.03.2026 10:48 11,7 °C 17,2 °C 11,1 °C 54 % 1027,0 hPa 0,0 l/m² 2 min 569 W/m² 25,7 km/h (4 Bft) 98,28 %
18.03.2026 10:50 11,7 °C 17,2 °C 11,1 °C 53 % 1027,0 hPa 0,0 l/m² 2 min 577 W/m² 25,7 km/h (4 Bft) 97,14 %
18.03.2026 10:52 11,8 °C 17,2 °C 11,1 °C 53 % 1027,0 hPa 0,0 l/m² 2 min 583 W/m² 29,0 km/h (5 Bft) 98,31 %
18.03.2026 10:54 11,8 °C 17,2 °C 11,1 °C 53 % 1027,1 hPa 0,0 l/m² 2 min 585 W/m² 22,5 km/h (4 Bft) 97,14 %
18.03.2026 10:56 11,9 °C 17,2 °C 11,7 °C 52 % 1027,0 hPa 0,0 l/m² 2 min 589 W/m² 25,7 km/h (4 Bft) 96,55 %
18.03.2026 10:58 11,9 °C 17,2 °C 11,7 °C 52 % 1027,1 hPa 0,0 l/m² 2 min 592 W/m² 29,0 km/h (5 Bft) 97,87 %
18.03.2026 11:00 12,0 °C 18,3 °C 12,2 °C 52 % 1027,1 hPa 0,0 l/m² 2 min 594 W/m² 22,5 km/h (4 Bft) 97,87 %
18.03.2026 11:02 12,1 °C 18,9 °C 12,8 °C 52 % 1027,0 hPa 0,0 l/m² 2 min 598 W/m² 19,3 km/h (3 Bft) 97,14 %
18.03.2026 11:07 12,2 °C 18,3 °C 12,8 °C 52 % 1027,1 hPa 0,0 l/m² 5 min 604 W/m² 38,6 km/h (5 Bft) 100,00 %
18.03.2026 11:08 12,2 °C 18,3 °C 13,3 °C 52 % 1027,1 hPa 0,0 l/m² 1 min 608 W/m² 25,7 km/h (4 Bft) 100,00 %
18.03.2026 11:10 12,2 °C 18,3 °C 13,3 °C 52 % 1027,1 hPa 0,0 l/m² 2 min 609 W/m² 35,4 km/h (5 Bft) 95,65 %
18.03.2026 11:12 12,3 °C 18,9 °C 12,8 °C 52 % 1027,1 hPa 0,0 l/m² 2 min 613 W/m² 25,7 km/h (4 Bft) 95,74 %
18.03.2026 11:14 12,3 °C 18,9 °C 13,3 °C 52 % 1027,0 hPa 0,0 l/m² 2 min 615 W/m² 25,7 km/h (4 Bft) 97,87 %
18.03.2026 11:16 12,4 °C 18,3 °C 13,3 °C 52 % 1027,1 hPa 0,0 l/m² 2 min 617 W/m² 32,2 km/h (5 Bft) 97,87 %
18.03.2026 11:18 12,4 °C 18,3 °C 13,3 °C 52 % 1027,1 hPa 0,0 l/m² 2 min 620 W/m² 25,7 km/h (4 Bft) 97,87 %
18.03.2026 11:20 12,4 °C 18,9 °C 13,3 °C 51 % 1027,1 hPa 0,0 l/m² 2 min 621 W/m² 25,7 km/h (4 Bft) 97,87 %
18.03.2026 11:22 12,6 °C 19,4 °C 13,9 °C 52 % 1027,1 hPa 0,0 l/m² 2 min 624 W/m² 22,5 km/h (4 Bft) 97,83 %
18.03.2026 11:24 12,6 °C 18,9 °C 13,9 °C 52 % 1027,1 hPa 0,0 l/m² 2 min 625 W/m² 25,7 km/h (4 Bft) 97,87 %
18.03.2026 11:26 12,7 °C 19,4 °C 14,4 °C 52 % 1027,1 hPa 0,0 l/m² 2 min 628 W/m² 22,5 km/h (4 Bft) 97,87 %
18.03.2026 11:28 12,8 °C 18,9 °C 14,4 °C 52 % 1027,1 hPa 0,0 l/m² 2 min 625 W/m² 25,7 km/h (4 Bft) 97,87 %
18.03.2026 11:30 12,8 °C 19,4 °C 14,4 °C 52 % 1027,1 hPa 0,0 l/m² 2 min 629 W/m² 19,3 km/h (3 Bft) 97,87 %
18.03.2026 11:32 12,9 °C 20,6 °C 14,4 °C 52 % 1027,0 hPa 0,0 l/m² 2 min 633 W/m² 25,7 km/h (4 Bft) 97,87 %
18.03.2026 11:34 13,1 °C 20,6 °C 14,4 °C 52 % 1027,0 hPa 0,0 l/m² 2 min 636 W/m² 29,0 km/h (5 Bft) 97,83 %
18.03.2026 11:36 13,1 °C 20,0 °C 14,4 °C 51 % 1027,0 hPa 0,0 l/m² 2 min 637 W/m² 22,5 km/h (4 Bft) 95,74 %
18.03.2026 11:38 13,1 °C 20,0 °C 15,0 °C 51 % 1027,0 hPa 0,0 l/m² 2 min 639 W/m² 16,1 km/h (3 Bft) 95,74 %
18.03.2026 11:40 13,2 °C 21,1 °C 15,0 °C 52 % 1026,9 hPa 0,0 l/m² 2 min 641 W/m² 16,1 km/h (3 Bft) 95,74 %
18.03.2026 11:42 13,3 °C 21,7 °C 15,0 °C 52 % 1026,9 hPa 0,0 l/m² 2 min 643 W/m² 22,5 km/h (4 Bft) 93,62 %
18.03.2026 11:44 13,4 °C 21,1 °C 15,0 °C 52 % 1026,9 hPa 0,0 l/m² 2 min 645 W/m² 22,5 km/h (4 Bft) 97,87 %
18.03.2026 11:46 13,5 °C 21,1 °C 15,6 °C 52 % 1026,9 hPa 0,0 l/m² 2 min 646 W/m² 19,3 km/h (3 Bft) 95,65 %
18.03.2026 11:48 13,6 °C 21,1 °C 15,0 °C 51 % 1026,9 hPa 0,0 l/m² 2 min 647 W/m² 19,3 km/h (3 Bft) 95,74 %
18.03.2026 11:50 13,6 °C 21,7 °C 15,6 °C 51 % 1026,9 hPa 0,0 l/m² 2 min 650 W/m² 22,5 km/h (4 Bft) 93,62 %
18.03.2026 11:52 13,6 °C 21,1 °C 15,6 °C 51 % 1026,9 hPa 0,0 l/m² 2 min 651 W/m² 16,1 km/h (3 Bft) 91,49 %
18.03.2026 11:54 13,7 °C 21,1 °C 15,6 °C 50 % 1026,9 hPa 0,0 l/m² 2 min 653 W/m² 16,1 km/h (3 Bft) 93,62 %
18.03.2026 11:56 13,7 °C 20,0 °C 14,4 °C 50 % 1026,8 hPa 0,0 l/m² 2 min 653 W/m² 25,7 km/h (4 Bft) 91,49 %
18.03.2026 11:58 13,7 °C 19,4 °C 13,9 °C 50 % 1026,9 hPa 0,0 l/m² 2 min 656 W/m² 22,5 km/h (4 Bft) 93,48 %
18.03.2026 12:00 13,7 °C 20,0 °C 13,9 °C 49 % 1026,8 hPa 0,0 l/m² 2 min 657 W/m² 16,1 km/h (3 Bft) 93,62 %
18.03.2026 12:02 13,7 °C 20,0 °C 13,9 °C 50 % 1026,8 hPa 0,0 l/m² 2 min 658 W/m² 32,2 km/h (5 Bft) 93,62 %
18.03.2026 12:04 13,7 °C 19,4 °C 13,9 °C 50 % 1026,9 hPa 0,0 l/m² 2 min 659 W/m² 29,0 km/h (5 Bft) 93,75 %
18.03.2026 12:07 13,7 °C 20,0 °C 13,9 °C 50 % 1026,9 hPa 0,0 l/m² 3 min 660 W/m² 19,3 km/h (3 Bft) 94,87 %
18.03.2026 12:08 13,7 °C 19,4 °C 13,3 °C 49 % 1026,9 hPa 0,0 l/m² 1 min 660 W/m² 22,5 km/h (4 Bft) 91,30 %
18.03.2026 12:12 13,9 °C 20,6 °C 12,8 °C 51 % 1026,9 hPa 0,0 l/m² 4 min 666 W/m² 12,9 km/h (3 Bft) 92,73 %
18.03.2026 12:14 14,1 °C 19,4 °C 12,2 °C 50 % 1026,9 hPa 0,0 l/m² 2 min 665 W/m² 19,3 km/h (3 Bft) 96,00 %
18.03.2026 12:16 14,2 °C 20,0 °C 11,7 °C 50 % 1026,9 hPa 0,0 l/m² 2 min 667 W/m² 22,5 km/h (4 Bft) 95,83 %
18.03.2026 12:18 14,2 °C 20,6 °C 11,7 °C 49 % 1026,9 hPa 0,0 l/m² 2 min 668 W/m² 22,5 km/h (4 Bft) 97,14 %
18.03.2026 12:20 14,2 °C 21,1 °C 11,7 °C 49 % 1026,8 hPa 0,0 l/m² 2 min 669 W/m² 19,3 km/h (3 Bft) 98,15 %
18.03.2026 12:22 14,3 °C 21,7 °C 12,2 °C 49 % 1026,9 hPa 0,0 l/m² 2 min 669 W/m² 19,3 km/h (3 Bft) 96,00 %
18.03.2026 12:24 14,3 °C 21,1 °C 12,2 °C 49 % 1026,9 hPa 0,0 l/m² 2 min 670 W/m² 25,7 km/h (4 Bft) 95,83 %
18.03.2026 12:26 14,3 °C 22,2 °C 13,3 °C 49 % 1026,9 hPa 0,0 l/m² 2 min 670 W/m² 16,1 km/h (3 Bft) 97,14 %
18.03.2026 12:28 14,3 °C 22,8 °C 13,9 °C 49 % 1027,0 hPa 0,0 l/m² 2 min 670 W/m² 16,1 km/h (3 Bft) 96,36 %
18.03.2026 12:30 14,3 °C 22,8 °C 14,4 °C 49 % 1027,0 hPa 0,0 l/m² 2 min 670 W/m² 16,1 km/h (3 Bft) 97,96 %
18.03.2026 12:32 14,4 °C 22,8 °C 14,4 °C 49 % 1026,9 hPa 0,0 l/m² 2 min 671 W/m² 16,1 km/h (3 Bft) 97,92 %
18.03.2026 12:34 14,6 °C 23,9 °C 13,9 °C 49 % 1026,8 hPa 0,0 l/m² 2 min 671 W/m² 9,7 km/h (2 Bft) 97,14 %
18.03.2026 12:36 14,7 °C 25,0 °C 14,4 °C 50 % 1026,8 hPa 0,0 l/m² 2 min 671 W/m² 12,9 km/h (3 Bft) 100,00 %
18.03.2026 12:38 14,9 °C 25,0 °C 14,4 °C 49 % 1026,8 hPa 0,0 l/m² 2 min 671 W/m² 16,1 km/h (3 Bft) 97,87 %
18.03.2026 12:40 14,9 °C 23,9 °C 14,4 °C 49 % 1026,8 hPa 0,0 l/m² 2 min 673 W/m² 19,3 km/h (3 Bft) 96,00 %
18.03.2026 12:42 15,1 °C 22,8 °C 13,3 °C 48 % 1026,8 hPa 0,0 l/m² 2 min 673 W/m² 19,3 km/h (3 Bft) 100,00 %
18.03.2026 12:44 15,1 °C 23,3 °C 12,8 °C 48 % 1026,8 hPa 0,0 l/m² 2 min 673 W/m² 12,9 km/h (3 Bft) 100,00 %
18.03.2026 12:46 15,1 °C 23,9 °C 12,8 °C 47 % 1026,7 hPa 0,0 l/m² 2 min 670 W/m² 16,1 km/h (3 Bft) 100,00 %
18.03.2026 12:48 15,1 °C 24,4 °C 12,2 °C 48 % 1026,8 hPa 0,0 l/m² 2 min 670 W/m² 16,1 km/h (3 Bft) 98,00 %
18.03.2026 12:50 15,2 °C 23,3 °C 12,2 °C 48 % 1026,7 hPa 0,0 l/m² 2 min 669 W/m² 16,1 km/h (3 Bft) 97,92 %
18.03.2026 12:52 15,2 °C 25,6 °C 11,7 °C 49 % 1026,7 hPa 0,0 l/m² 2 min 672 W/m² 12,9 km/h (3 Bft) 100,00 %
18.03.2026 12:54 15,3 °C 25,0 °C 11,7 °C 48 % 1026,6 hPa 0,0 l/m² 2 min 670 W/m² 12,9 km/h (3 Bft) 98,15 %
18.03.2026 12:56 15,4 °C 25,0 °C 11,7 °C 48 % 1026,6 hPa 0,0 l/m² 2 min 669 W/m² 12,9 km/h (3 Bft) 100,00 %
18.03.2026 12:58 15,6 °C 23,3 °C 11,7 °C 46 % 1026,5 hPa 0,0 l/m² 2 min 670 W/m² 25,7 km/h (4 Bft) 100,00 %
18.03.2026 13:00 15,6 °C 23,9 °C 11,7 °C 47 % 1026,5 hPa 0,0 l/m² 2 min 668 W/m² 16,1 km/h (3 Bft) 100,00 %
18.03.2026 13:02 15,6 °C 23,9 °C 11,7 °C 46 % 1026,5 hPa 0,0 l/m² 2 min 669 W/m² 12,9 km/h (3 Bft) 100,00 %
18.03.2026 13:04 15,6 °C 25,0 °C 11,7 °C 47 % 1026,5 hPa 0,0 l/m² 2 min 667 W/m² 16,1 km/h (3 Bft) 100,00 %
18.03.2026 13:06 15,7 °C 25,6 °C 11,7 °C 47 % 1026,4 hPa 0,0 l/m² 2 min 667 W/m² 16,1 km/h (3 Bft) 100,00 %
18.03.2026 13:08 15,8 °C 25,0 °C 11,7 °C 47 % 1026,4 hPa 0,0 l/m² 2 min 667 W/m² 16,1 km/h (3 Bft) 97,92 %
18.03.2026 13:10 15,8 °C 25,6 °C 11,7 °C 47 % 1026,3 hPa 0,0 l/m² 2 min 668 W/m² 25,7 km/h (4 Bft) 100,00 %
18.03.2026 13:12 15,9 °C 25,0 °C 11,7 °C 47 % 1026,3 hPa 0,0 l/m² 2 min 666 W/m² 16,1 km/h (3 Bft) 97,92 %
18.03.2026 13:14 15,9 °C 25,0 °C 11,7 °C 46 % 1026,2 hPa 0,0 l/m² 2 min 663 W/m² 19,3 km/h (3 Bft) 100,00 %
18.03.2026 13:16 15,9 °C 23,9 °C 11,7 °C 46 % 1026,2 hPa 0,0 l/m² 2 min 663 W/m² 12,9 km/h (3 Bft) 98,18 %
18.03.2026 13:18 15,9 °C 24,4 °C 11,7 °C 46 % 1026,2 hPa 0,0 l/m² 2 min 662 W/m² 6,4 km/h (2 Bft) 97,96 %
18.03.2026 13:20 16,0 °C 25,0 °C 11,7 °C 46 % 1026,2 hPa 0,0 l/m² 2 min 663 W/m² 12,9 km/h (3 Bft) 97,92 %
18.03.2026 13:22 16,1 °C 25,0 °C 11,7 °C 46 % 1026,2 hPa 0,0 l/m² 2 min 661 W/m² 16,1 km/h (3 Bft) 100,00 %
18.03.2026 13:24 16,2 °C 25,0 °C 11,7 °C 46 % 1026,1 hPa 0,0 l/m² 2 min 661 W/m² 16,1 km/h (3 Bft) 97,87 %
18.03.2026 13:26 16,2 °C 23,3 °C 11,7 °C 44 % 1026,1 hPa 0,0 l/m² 2 min 656 W/m² 19,3 km/h (3 Bft) 100,00 %
18.03.2026 13:28 16,2 °C 23,3 °C 11,7 °C 44 % 1026,1 hPa 0,0 l/m² 2 min 659 W/m² 16,1 km/h (3 Bft) 97,87 %
18.03.2026 13:30 16,2 °C 23,3 °C 11,7 °C 44 % 1026,0 hPa 0,0 l/m² 2 min 656 W/m² 22,5 km/h (4 Bft) 95,65 %
18.03.2026 13:32 16,2 °C 23,9 °C 11,7 °C 44 % 1026,0 hPa 0,0 l/m² 2 min 655 W/m² 22,5 km/h (4 Bft) 97,87 %
18.03.2026 13:34 16,2 °C 23,3 °C 11,7 °C 43 % 1026,0 hPa 0,0 l/m² 2 min 655 W/m² 19,3 km/h (3 Bft) 97,87 %
18.03.2026 13:36 16,2 °C 23,3 °C 11,7 °C 44 % 1026,0 hPa 0,0 l/m² 2 min 651 W/m² 16,1 km/h (3 Bft) 97,87 %
18.03.2026 13:38 16,2 °C 23,3 °C 11,7 °C 44 % 1026,0 hPa 0,0 l/m² 2 min 649 W/m² 19,3 km/h (3 Bft) 95,74 %
18.03.2026 13:40 16,3 °C 23,9 °C 11,7 °C 44 % 1025,9 hPa 0,0 l/m² 2 min 649 W/m² 19,3 km/h (3 Bft) 97,87 %
18.03.2026 13:42 16,3 °C 24,4 °C 11,7 °C 44 % 1025,9 hPa 0,0 l/m² 2 min 645 W/m² 16,1 km/h (3 Bft) 97,87 %
18.03.2026 13:44 16,3 °C 23,9 °C 11,7 °C 43 % 1025,9 hPa 0,0 l/m² 2 min 646 W/m² 19,3 km/h (3 Bft) 97,83 %
18.03.2026 13:46 16,4 °C 23,3 °C 11,7 °C 42 % 1025,9 hPa 0,0 l/m² 2 min 646 W/m² 25,7 km/h (4 Bft) 95,74 %
18.03.2026 13:48 16,4 °C 22,8 °C 11,7 °C 42 % 1025,8 hPa 0,0 l/m² 2 min 643 W/m² 22,5 km/h (4 Bft) 97,87 %
18.03.2026 13:50 16,4 °C 22,8 °C 11,7 °C 43 % 1025,9 hPa 0,0 l/m² 2 min 641 W/m² 22,5 km/h (4 Bft) 95,74 %
18.03.2026 13:52 16,3 °C 22,8 °C 11,7 °C 42 % 1025,8 hPa 0,0 l/m² 2 min 637 W/m² 25,7 km/h (4 Bft) 97,87 %
18.03.2026 13:54 16,3 °C 23,3 °C 11,7 °C 42 % 1025,8 hPa 0,0 l/m² 2 min 637 W/m² 16,1 km/h (3 Bft) 95,74 %
18.03.2026 13:56 16,3 °C 23,9 °C 12,2 °C 44 % 1025,9 hPa 0,0 l/m² 2 min 635 W/m² 25,7 km/h (4 Bft) 97,83 %
18.03.2026 13:58 16,4 °C 25,6 °C 12,2 °C 44 % 1025,8 hPa 0,0 l/m² 2 min 632 W/m² 16,1 km/h (3 Bft) 95,74 %
18.03.2026 14:00 16,5 °C 24,4 °C 12,2 °C 43 % 1025,8 hPa 0,0 l/m² 2 min 630 W/m² 19,3 km/h (3 Bft) 97,87 %
18.03.2026 14:02 16,5 °C 25,6 °C 12,2 °C 44 % 1025,8 hPa 0,0 l/m² 2 min 627 W/m² 12,9 km/h (3 Bft) 97,87 %
18.03.2026 14:04 16,6 °C 23,3 °C 12,2 °C 42 % 1025,8 hPa 0,0 l/m² 2 min 624 W/m² 22,5 km/h (4 Bft) 100,00 %
18.03.2026 14:06 16,6 °C 23,3 °C 12,2 °C 42 % 1025,8 hPa 0,0 l/m² 2 min 622 W/m² 19,3 km/h (3 Bft) 100,00 %
18.03.2026 14:08 16,7 °C 24,4 °C 12,8 °C 44 % 1025,8 hPa 0,0 l/m² 2 min 619 W/m² 16,1 km/h (3 Bft) 100,00 %
18.03.2026 14:10 16,8 °C 26,1 °C 12,8 °C 45 % 1025,8 hPa 0,0 l/m² 2 min 617 W/m² 12,9 km/h (3 Bft) 100,00 %
18.03.2026 14:12 16,7 °C 26,1 °C 12,8 °C 44 % 1025,8 hPa 0,0 l/m² 2 min 614 W/m² 16,1 km/h (3 Bft) 100,00 %
18.03.2026 14:14 16,8 °C 26,1 °C 12,8 °C 44 % 1025,8 hPa 0,0 l/m² 2 min 613 W/m² 19,3 km/h (3 Bft) 100,00 %
18.03.2026 14:16 16,8 °C 26,1 °C 12,8 °C 45 % 1025,7 hPa 0,0 l/m² 2 min 609 W/m² 12,9 km/h (3 Bft) 100,00 %
18.03.2026 14:18 16,9 °C 26,7 °C 12,8 °C 44 % 1025,7 hPa 0,0 l/m² 2 min 606 W/m² 12,9 km/h (3 Bft) 100,00 %
18.03.2026 14:20 17,0 °C 26,7 °C 12,8 °C 44 % 1025,7 hPa 0,0 l/m² 2 min 604 W/m² 12,9 km/h (3 Bft) 100,00 %
18.03.2026 14:22 17,1 °C 25,0 °C 12,8 °C 44 % 1025,7 hPa 0,0 l/m² 2 min 601 W/m² 22,5 km/h (4 Bft) 100,00 %
18.03.2026 14:24 17,1 °C 25,0 °C 12,8 °C 42 % 1025,6 hPa 0,0 l/m² 2 min 598 W/m² 12,9 km/h (3 Bft) 100,00 %
18.03.2026 14:26 17,2 °C 25,6 °C 12,8 °C 43 % 1025,6 hPa 0,0 l/m² 2 min 596 W/m² 12,9 km/h (3 Bft) 100,00 %
18.03.2026 14:28 17,3 °C 26,1 °C 12,8 °C 43 % 1025,6 hPa 0,0 l/m² 2 min 592 W/m² 12,9 km/h (3 Bft) 100,00 %
18.03.2026 14:30 17,4 °C 25,0 °C 12,8 °C 43 % 1025,6 hPa 0,0 l/m² 2 min 589 W/m² 9,7 km/h (2 Bft) 100,00 %
18.03.2026 14:32 17,5 °C 25,0 °C 12,8 °C 43 % 1025,5 hPa 0,0 l/m² 2 min 587 W/m² 9,7 km/h (2 Bft) 100,00 %
18.03.2026 14:34 17,6 °C 26,1 °C 13,3 °C 43 % 1025,5 hPa 0,0 l/m² 2 min 585 W/m² 6,4 km/h (2 Bft) 97,87 %
18.03.2026 14:36 17,7 °C 26,1 °C 13,3 °C 44 % 1025,4 hPa 0,0 l/m² 2 min 581 W/m² 12,9 km/h (3 Bft) 100,00 %
18.03.2026 14:38 17,8 °C 25,6 °C 13,3 °C 42 % 1025,4 hPa 0,0 l/m² 2 min 579 W/m² 9,7 km/h (2 Bft) 97,87 %
18.03.2026 14:40 17,8 °C 24,4 °C 12,8 °C 41 % 1025,4 hPa 0,0 l/m² 2 min 575 W/m² 12,9 km/h (3 Bft) 97,87 %
18.03.2026 14:42 17,8 °C 23,3 °C 13,3 °C 41 % 1025,4 hPa 0,0 l/m² 2 min 573 W/m² 16,1 km/h (3 Bft) 95,65 %
18.03.2026 14:44 17,8 °C 23,9 °C 12,8 °C 42 % 1025,4 hPa 0,0 l/m² 2 min 569 W/m² 16,1 km/h (3 Bft) 95,74 %
18.03.2026 14:46 17,8 °C 23,9 °C 12,8 °C 41 % 1025,4 hPa 0,0 l/m² 2 min 563 W/m² 12,9 km/h (3 Bft) 97,87 %
18.03.2026 14:48 17,9 °C 23,9 °C 12,8 °C 41 % 1025,4 hPa 0,0 l/m² 2 min 561 W/m² 16,1 km/h (3 Bft) 97,87 %
18.03.2026 14:50 17,9 °C 23,9 °C 12,8 °C 42 % 1025,3 hPa 0,0 l/m² 2 min 558 W/m² 19,3 km/h (3 Bft) 97,87 %
18.03.2026 14:52 17,9 °C 23,9 °C 13,3 °C 43 % 1025,3 hPa 0,0 l/m² 2 min 555 W/m² 12,9 km/h (3 Bft) 93,62 %
18.03.2026 14:54 17,9 °C 23,9 °C 13,3 °C 42 % 1025,3 hPa 0,0 l/m² 2 min 551 W/m² 16,1 km/h (3 Bft) 97,83 %
18.03.2026 14:56 17,9 °C 22,8 °C 12,8 °C 40 % 1025,3 hPa 0,0 l/m² 2 min 547 W/m² 16,1 km/h (3 Bft) 97,87 %
18.03.2026 14:58 17,8 °C 22,8 °C 12,8 °C 40 % 1025,2 hPa 0,0 l/m² 2 min 542 W/m² 19,3 km/h (3 Bft) 97,87 %
18.03.2026 15:00 17,8 °C 22,8 °C 13,3 °C 42 % 1025,2 hPa 0,0 l/m² 2 min 538 W/m² 12,9 km/h (3 Bft) 95,74 %
18.03.2026 15:02 17,8 °C 22,8 °C 13,3 °C 42 % 1025,2 hPa 0,0 l/m² 2 min 535 W/m² 12,9 km/h (3 Bft) 93,62 %
18.03.2026 15:05 17,7 °C 22,2 °C 13,3 °C 43 % 1025,1 hPa 0,0 l/m² 3 min 532 W/m² 16,1 km/h (3 Bft) 97,37 %
18.03.2026 15:10 17,7 °C 22,2 °C 13,3 °C 42 % 1025,2 hPa 0,0 l/m² 5 min 509 W/m² 19,3 km/h (3 Bft) 99,12 %
18.03.2026 15:15 17,9 °C 23,9 °C 13,9 °C 43 % 1025,1 hPa 0,0 l/m² 5 min 503 W/m² 12,9 km/h (3 Bft) 97,37 %
18.03.2026 15:20 18,1 °C 23,3 °C 13,9 °C 42 % 1025,1 hPa 0,0 l/m² 5 min 493 W/m² 16,1 km/h (3 Bft) 98,25 %
18.03.2026 15:30 17,8 °C 22,8 °C 13,9 °C 43 % 1024,9 hPa 0,0 l/m² 5 min 479 W/m² 19,3 km/h (3 Bft) 97,06 %
18.03.2026 15:32 17,8 °C 23,3 °C 14,4 °C 42 % 1024,9 hPa 0,0 l/m² 2 min 471 W/m² 19,3 km/h (3 Bft) 94,29 %
18.03.2026 15:34 17,8 °C 23,3 °C 14,4 °C 43 % 1024,9 hPa 0,0 l/m² 2 min 467 W/m² 12,9 km/h (3 Bft) 95,74 %
18.03.2026 15:36 17,8 °C 22,8 °C 13,9 °C 42 % 1024,9 hPa 0,0 l/m² 2 min 462 W/m² 19,3 km/h (3 Bft) 97,87 %
18.03.2026 15:38 17,9 °C 23,3 °C 13,9 °C 44 % 1024,8 hPa 0,0 l/m² 2 min 458 W/m² 12,9 km/h (3 Bft) 95,74 %
18.03.2026 15:40 17,9 °C 22,8 °C 14,4 °C 44 % 1024,8 hPa 0,0 l/m² 2 min 439 W/m² 16,1 km/h (3 Bft) 93,48 %
18.03.2026 15:42 17,8 °C 22,8 °C 14,4 °C 43 % 1024,8 hPa 0,0 l/m² 2 min 450 W/m² 12,9 km/h (3 Bft) 95,74 %
18.03.2026 15:44 17,8 °C 23,3 °C 14,4 °C 43 % 1024,8 hPa 0,0 l/m² 2 min 443 W/m² 16,1 km/h (3 Bft) 95,74 %
18.03.2026 15:46 17,8 °C 23,9 °C 14,4 °C 43 % 1024,8 hPa 0,0 l/m² 2 min 438 W/m² 16,1 km/h (3 Bft) 95,74 %
18.03.2026 15:48 17,8 °C 23,9 °C 13,9 °C 43 % 1024,7 hPa 0,0 l/m² 2 min 433 W/m² 9,7 km/h (2 Bft) 95,74 %
18.03.2026 15:50 17,8 °C 22,8 °C 13,9 °C 43 % 1024,8 hPa 0,0 l/m² 2 min 427 W/m² 19,3 km/h (3 Bft) 95,74 %
18.03.2026 15:52 17,8 °C 22,8 °C 13,9 °C 44 % 1024,8 hPa 0,0 l/m² 2 min 424 W/m² 12,9 km/h (3 Bft) 95,74 %
18.03.2026 15:54 17,7 °C 23,3 °C 13,3 °C 44 % 1024,8 hPa 0,0 l/m² 2 min 418 W/m² 12,9 km/h (3 Bft) 95,65 %
18.03.2026 15:56 17,8 °C 23,3 °C 13,3 °C 45 % 1024,8 hPa 0,0 l/m² 2 min 404 W/m² 12,9 km/h (3 Bft) 95,74 %
18.03.2026 15:58 17,8 °C 22,8 °C 13,3 °C 44 % 1024,8 hPa 0,0 l/m² 2 min 402 W/m² 12,9 km/h (3 Bft) 97,87 %
18.03.2026 16:00 17,7 °C 22,2 °C 12,8 °C 43 % 1024,8 hPa 0,0 l/m² 2 min 404 W/m² 19,3 km/h (3 Bft) 97,87 %
18.03.2026 16:02 17,8 °C 22,2 °C 12,8 °C 44 % 1024,8 hPa 0,0 l/m² 2 min 398 W/m² 19,3 km/h (3 Bft) 97,87 %
18.03.2026 16:04 17,7 °C 22,8 °C 12,2 °C 44 % 1024,8 hPa 0,0 l/m² 2 min 392 W/m² 12,9 km/h (3 Bft) 95,74 %
18.03.2026 16:06 17,7 °C 22,8 °C 12,2 °C 44 % 1024,8 hPa 0,0 l/m² 2 min 386 W/m² 19,3 km/h (3 Bft) 98,31 %
18.03.2026 16:08 17,7 °C 23,3 °C 12,2 °C 44 % 1024,8 hPa 0,0 l/m² 2 min 370 W/m² 9,7 km/h (2 Bft) 97,22 %
18.03.2026 16:10 17,7 °C 23,3 °C 12,2 °C 44 % 1024,8 hPa 0,0 l/m² 2 min 367 W/m² 12,9 km/h (3 Bft) 95,74 %
18.03.2026 16:12 17,7 °C 22,8 °C 12,2 °C 44 % 1024,8 hPa 0,0 l/m² 2 min 371 W/m² 16,1 km/h (3 Bft) 97,87 %
18.03.2026 16:14 17,7 °C 22,2 °C 12,2 °C 45 % 1024,8 hPa 0,0 l/m² 2 min 366 W/m² 12,9 km/h (3 Bft) 95,74 %
18.03.2026 16:16 17,7 °C 22,2 °C 12,2 °C 45 % 1024,8 hPa 0,0 l/m² 2 min 357 W/m² 12,9 km/h (3 Bft) 97,83 %
18.03.2026 16:18 17,7 °C 21,7 °C 12,2 °C 43 % 1024,8 hPa 0,0 l/m² 2 min 355 W/m² 16,1 km/h (3 Bft) 97,87 %
18.03.2026 16:20 17,7 °C 21,1 °C 12,2 °C 43 % 1024,8 hPa 0,0 l/m² 2 min 349 W/m² 16,1 km/h (3 Bft) 97,87 %
18.03.2026 16:22 17,6 °C 21,7 °C 12,2 °C 43 % 1024,7 hPa 0,0 l/m² 2 min 345 W/m² 12,9 km/h (3 Bft) 100,00 %
18.03.2026 16:24 17,6 °C 21,7 °C 12,2 °C 43 % 1024,7 hPa 0,0 l/m² 2 min 339 W/m² 12,9 km/h (3 Bft) 100,00 %
18.03.2026 16:26 17,5 °C 21,7 °C 11,7 °C 44 % 1024,8 hPa 0,0 l/m² 2 min 333 W/m² 9,7 km/h (2 Bft) 97,87 %
18.03.2026 16:28 17,4 °C 21,7 °C 12,2 °C 46 % 1024,7 hPa 0,0 l/m² 2 min 324 W/m² 12,9 km/h (3 Bft) 100,00 %
18.03.2026 16:30 17,4 °C 21,7 °C 12,2 °C 46 % 1024,7 hPa 0,0 l/m² 2 min 312 W/m² 12,9 km/h (3 Bft) 97,87 %
18.03.2026 16:32 17,4 °C 21,1 °C 12,2 °C 46 % 1024,8 hPa 0,0 l/m² 2 min 309 W/m² 12,9 km/h (3 Bft) 100,00 %
18.03.2026 16:34 17,3 °C 20,6 °C 11,7 °C 44 % 1024,8 hPa 0,0 l/m² 2 min 311 W/m² 12,9 km/h (3 Bft) 97,87 %
18.03.2026 16:36 17,3 °C 20,0 °C 11,7 °C 44 % 1024,8 hPa 0,0 l/m² 2 min 304 W/m² 22,5 km/h (4 Bft) 100,00 %
18.03.2026 16:38 17,3 °C 20,0 °C 11,7 °C 45 % 1024,8 hPa 0,0 l/m² 2 min 296 W/m² 12,9 km/h (3 Bft) 100,00 %
18.03.2026 16:40 17,3 °C 20,0 °C 11,7 °C 44 % 1024,8 hPa 0,0 l/m² 2 min 290 W/m² 16,1 km/h (3 Bft) 100,00 %
18.03.2026 16:42 17,3 °C 20,0 °C 11,7 °C 44 % 1024,8 hPa 0,0 l/m² 2 min 285 W/m² 12,9 km/h (3 Bft) 100,00 %
18.03.2026 16:44 17,2 °C 20,0 °C 11,7 °C 44 % 1024,8 hPa 0,0 l/m² 2 min 278 W/m² 12,9 km/h (3 Bft) 97,87 %
18.03.2026 16:46 17,2 °C 19,4 °C 11,7 °C 44 % 1024,8 hPa 0,0 l/m² 2 min 272 W/m² 22,5 km/h (4 Bft) 100,00 %
18.03.2026 16:48 17,2 °C 20,0 °C 11,7 °C 44 % 1024,8 hPa 0,0 l/m² 2 min 265 W/m² 12,9 km/h (3 Bft) 100,00 %
18.03.2026 16:50 17,2 °C 20,0 °C 11,7 °C 45 % 1024,8 hPa 0,0 l/m² 2 min 258 W/m² 9,7 km/h (2 Bft) 100,00 %
18.03.2026 16:52 17,2 °C 20,0 °C 11,7 °C 45 % 1024,7 hPa 0,0 l/m² 2 min 251 W/m² 9,7 km/h (2 Bft) 97,87 %
18.03.2026 16:54 17,2 °C 20,0 °C 11,7 °C 46 % 1024,7 hPa 0,0 l/m² 2 min 244 W/m² 16,1 km/h (3 Bft) 100,00 %
18.03.2026 16:56 17,2 °C 20,6 °C 11,7 °C 46 % 1024,8 hPa 0,0 l/m² 2 min 237 W/m² 9,7 km/h (2 Bft) 97,87 %
18.03.2026 16:58 17,2 °C 20,0 °C 11,7 °C 46 % 1024,8 hPa 0,0 l/m² 2 min 230 W/m² 9,7 km/h (2 Bft) 100,00 %
18.03.2026 17:00 17,2 °C 20,0 °C 11,7 °C 46 % 1024,8 hPa 0,0 l/m² 2 min 223 W/m² 9,7 km/h (2 Bft) 100,00 %
18.03.2026 17:02 17,2 °C 19,4 °C 11,7 °C 46 % 1024,8 hPa 0,0 l/m² 2 min 216 W/m² 12,9 km/h (3 Bft) 100,00 %
18.03.2026 17:04 17,2 °C 18,9 °C 11,7 °C 46 % 1024,7 hPa 0,0 l/m² 2 min 209 W/m² 12,9 km/h (3 Bft) 100,00 %
18.03.2026 17:06 17,2 °C 17,8 °C 11,7 °C 45 % 1024,7 hPa 0,0 l/m² 2 min 195 W/m² 16,1 km/h (3 Bft) 98,31 %
18.03.2026 17:08 17,1 °C 17,2 °C 11,1 °C 45 % 1024,7 hPa 0,0 l/m² 2 min 196 W/m² 12,9 km/h (3 Bft) 100,00 %
18.03.2026 17:10 17,1 °C 17,8 °C 11,1 °C 45 % 1024,8 hPa 0,0 l/m² 2 min 187 W/m² 16,1 km/h (3 Bft) 100,00 %
18.03.2026 17:12 17,1 °C 16,7 °C 11,1 °C 45 % 1024,7 hPa 0,0 l/m² 2 min 181 W/m² 19,3 km/h (3 Bft) 100,00 %
18.03.2026 17:14 17,1 °C 16,1 °C 11,1 °C 46 % 1024,8 hPa 0,0 l/m² 2 min 175 W/m² 16,1 km/h (3 Bft) 100,00 %
18.03.2026 17:16 16,9 °C 16,1 °C 11,1 °C 46 % 1024,8 hPa 0,0 l/m² 2 min 157 W/m² 12,9 km/h (3 Bft) 100,00 %
18.03.2026 17:18 16,8 °C 15,6 °C 11,1 °C 46 % 1024,8 hPa 0,0 l/m² 2 min 139 W/m² 12,9 km/h (3 Bft) 95,74 %
18.03.2026 17:20 16,8 °C 15,6 °C 11,1 °C 46 % 1024,8 hPa 0,0 l/m² 2 min 142 W/m² 12,9 km/h (3 Bft) 97,87 %
18.03.2026 17:22 16,7 °C 15,6 °C 11,1 °C 47 % 1024,8 hPa 0,0 l/m² 2 min 147 W/m² 12,9 km/h (3 Bft) 97,87 %
18.03.2026 17:24 16,7 °C 15,6 °C 11,1 °C 47 % 1024,7 hPa 0,0 l/m² 2 min 122 W/m² 16,1 km/h (3 Bft) 97,87 %
18.03.2026 17:26 16,7 °C 15,6 °C 11,1 °C 47 % 1024,8 hPa 0,0 l/m² 2 min 127 W/m² 12,9 km/h (3 Bft) 97,87 %
18.03.2026 17:28 16,6 °C 15,6 °C 11,1 °C 47 % 1024,8 hPa 0,0 l/m² 2 min 124 W/m² 12,9 km/h (3 Bft) 97,83 %
18.03.2026 17:30 16,6 °C 15,6 °C 11,1 °C 47 % 1024,8 hPa 0,0 l/m² 2 min 119 W/m² 16,1 km/h (3 Bft) 97,87 %
18.03.2026 17:32 16,5 °C 15,6 °C 11,1 °C 46 % 1024,8 hPa 0,0 l/m² 2 min 112 W/m² 16,1 km/h (3 Bft) 97,87 %
18.03.2026 17:34 16,5 °C 15,6 °C 11,1 °C 47 % 1024,9 hPa 0,0 l/m² 2 min 106 W/m² 9,7 km/h (2 Bft) 93,62 %
18.03.2026 17:36 16,4 °C 15,6 °C 10,6 °C 47 % 1024,9 hPa 0,0 l/m² 2 min 104 W/m² 16,1 km/h (3 Bft) 97,87 %
18.03.2026 17:38 16,4 °C 15,6 °C 10,6 °C 47 % 1024,8 hPa 0,0 l/m² 2 min 98 W/m² 16,1 km/h (3 Bft) 97,83 %
18.03.2026 17:40 16,4 °C 15,6 °C 10,6 °C 46 % 1024,9 hPa 0,0 l/m² 2 min 93 W/m² 19,3 km/h (3 Bft) 97,87 %
18.03.2026 17:42 16,4 °C 15,6 °C 11,1 °C 46 % 1024,9 hPa 0,0 l/m² 2 min 87 W/m² 19,3 km/h (3 Bft) 97,87 %
18.03.2026 17:44 16,3 °C 15,6 °C 10,6 °C 46 % 1024,9 hPa 0,0 l/m² 2 min 81 W/m² 19,3 km/h (3 Bft) 96,00 %
18.03.2026 17:46 16,3 °C 15,6 °C 10,6 °C 46 % 1024,9 hPa 0,0 l/m² 2 min 75 W/m² 16,1 km/h (3 Bft) 95,74 %
18.03.2026 17:48 16,2 °C 15,0 °C 10,6 °C 47 % 1024,9 hPa 0,0 l/m² 0 min 65 W/m² 16,1 km/h (3 Bft) 95,74 %
18.03.2026 17:50 16,2 °C 15,0 °C 10,6 °C 47 % 1024,9 hPa 0,0 l/m² 0 min 54 W/m² 12,9 km/h (3 Bft) 97,83 %
18.03.2026 17:52 16,1 °C 15,0 °C 10,6 °C 47 % 1024,9 hPa 0,0 l/m² 0 min 46 W/m² 12,9 km/h (3 Bft) 93,62 %
18.03.2026 17:54 16,0 °C 14,4 °C 10,6 °C 47 % 1024,9 hPa 0,0 l/m² 0 min 41 W/m² 22,5 km/h (4 Bft) 95,74 %
18.03.2026 17:56 15,9 °C 14,4 °C 10,6 °C 47 % 1024,9 hPa 0,0 l/m² 0 min 43 W/m² 12,9 km/h (3 Bft) 93,62 %
18.03.2026 17:58 15,9 °C 14,4 °C 10,6 °C 47 % 1024,9 hPa 0,0 l/m² 0 min 42 W/m² 19,3 km/h (3 Bft) 95,74 %
18.03.2026 18:00 15,8 °C 14,4 °C 10,0 °C 48 % 1025,0 hPa 0,0 l/m² 0 min 39 W/m² 12,9 km/h (3 Bft) 97,87 %
18.03.2026 18:02 15,7 °C 14,4 °C 10,0 °C 48 % 1024,9 hPa 0,0 l/m² 0 min 33 W/m² 12,9 km/h (3 Bft) 97,83 %
18.03.2026 18:04 15,7 °C 14,4 °C 10,0 °C 49 % 1024,9 hPa 0,0 l/m² 0 min 28 W/m² 6,4 km/h (2 Bft) 93,62 %
18.03.2026 18:07 15,5 °C 13,9 °C 10,0 °C 50 % 1024,9 hPa 0,0 l/m² 0 min 21 W/m² 12,9 km/h (3 Bft) 93,62 %
18.03.2026 18:08 15,4 °C 13,9 °C 10,0 °C 50 % 1024,9 hPa 0,0 l/m² 0 min 24 W/m² 12,9 km/h (3 Bft) 97,22 %
18.03.2026 18:10 15,3 °C 13,9 °C 9,4 °C 50 % 1025,0 hPa 0,0 l/m² 0 min 21 W/m² 6,4 km/h (2 Bft) 95,00 %
18.03.2026 18:12 15,3 °C 13,9 °C 9,4 °C 50 % 1025,1 hPa 0,0 l/m² 0 min 20 W/m² 6,4 km/h (2 Bft) 93,62 %
18.03.2026 18:14 15,2 °C 13,9 °C 9,4 °C 50 % 1025,0 hPa 0,0 l/m² 0 min 19 W/m² 6,4 km/h (2 Bft) 93,62 %
18.03.2026 18:16 15,2 °C 13,3 °C 9,4 °C 50 % 1025,0 hPa 0,0 l/m² 0 min 18 W/m² 6,4 km/h (2 Bft) 95,65 %
18.03.2026 18:18 15,1 °C 13,3 °C 9,4 °C 50 % 1025,1 hPa 0,0 l/m² 0 min 18 W/m² 16,1 km/h (3 Bft) 93,62 %
18.03.2026 18:20 15,0 °C 13,3 °C 9,4 °C 51 % 1025,1 hPa 0,0 l/m² 0 min 16 W/m² 6,4 km/h (2 Bft) 95,74 %
18.03.2026 18:22 14,9 °C 13,3 °C 9,4 °C 51 % 1025,1 hPa 0,0 l/m² 0 min 16 W/m² 6,4 km/h (2 Bft) 95,74 %
18.03.2026 18:24 14,8 °C 13,3 °C 9,4 °C 51 % 1025,2 hPa 0,0 l/m² 0 min 14 W/m² 12,9 km/h (3 Bft) 95,74 %
18.03.2026 18:26 14,8 °C 13,3 °C 9,4 °C 52 % 1025,2 hPa 0,0 l/m² 0 min 13 W/m² 6,4 km/h (2 Bft) 93,62 %
18.03.2026 18:28 14,7 °C 12,8 °C 8,9 °C 52 % 1025,2 hPa 0,0 l/m² 0 min 12 W/m² 12,9 km/h (3 Bft) 95,65 %
18.03.2026 18:30 14,7 °C 12,8 °C 8,9 °C 52 % 1025,2 hPa 0,0 l/m² 0 min 11 W/m² 3,2 km/h (1 Bft) 95,74 %
18.03.2026 18:32 14,6 °C 12,8 °C 8,9 °C 53 % 1025,3 hPa 0,0 l/m² 0 min 10 W/m² 3,2 km/h (1 Bft) 95,74 %
18.03.2026 18:34 14,5 °C 12,2 °C 8,9 °C 54 % 1025,2 hPa 0,0 l/m² 0 min 9 W/m² 6,4 km/h (2 Bft) 91,49 %
18.03.2026 18:36 14,3 °C 12,2 °C 8,3 °C 54 % 1025,3 hPa 0,0 l/m² 0 min 8 W/m² 6,4 km/h (2 Bft) 95,74 %
18.03.2026 18:38 14,3 °C 12,2 °C 8,3 °C 54 % 1025,3 hPa 0,0 l/m² 0 min 7 W/m² 3,2 km/h (1 Bft) 100,00 %
18.03.2026 18:40 14,2 °C 12,2 °C 8,3 °C 55 % 1025,3 hPa 0,0 l/m² 0 min 7 W/m² 3,2 km/h (1 Bft) 95,65 %
18.03.2026 18:42 14,1 °C 12,2 °C 8,3 °C 55 % 1025,3 hPa 0,0 l/m² 0 min 5 W/m² 3,2 km/h (1 Bft) 95,74 %
18.03.2026 18:44 14,1 °C 12,2 °C 8,3 °C 55 % 1025,3 hPa 0,0 l/m² 0 min 5 W/m² 6,4 km/h (2 Bft) 97,87 %
18.03.2026 18:46 14,0 °C 12,2 °C 7,8 °C 55 % 1025,3 hPa 0,0 l/m² 0 min 3 W/m² 3,2 km/h (1 Bft) 100,00 %
18.03.2026 18:48 13,9 °C 12,2 °C 7,8 °C 54 % 1025,4 hPa 0,0 l/m² 0 min 0 W/m² 6,4 km/h (2 Bft) 97,87 %
18.03.2026 18:50 13,8 °C 12,2 °C 7,8 °C 54 % 1025,4 hPa 0,0 l/m² 0 min 0 W/m² 3,2 km/h (1 Bft) 100,00 %
18.03.2026 18:52 13,8 °C 11,7 °C 7,8 °C 54 % 1025,4 hPa 0,0 l/m² 0 min 0 W/m² 3,2 km/h (1 Bft) 97,83 %
18.03.2026 18:54 13,7 °C 11,7 °C 7,8 °C 55 % 1025,4 hPa 0,0 l/m² 0 min 0 W/m² 3,2 km/h (1 Bft) 95,74 %
18.03.2026 18:56 13,6 °C 11,7 °C 7,8 °C 55 % 1025,4 hPa 0,0 l/m² 0 min 0 W/m² 3,2 km/h (1 Bft) 100,00 %
18.03.2026 18:58 13,6 °C 11,7 °C 7,8 °C 55 % 1025,4 hPa 0,0 l/m² 0 min 0 W/m² 3,2 km/h (1 Bft) 97,87 %
18.03.2026 19:00 13,5 °C 11,7 °C 7,8 °C 56 % 1025,5 hPa 0,0 l/m² 0 min 0 W/m² 3,2 km/h (1 Bft) 100,00 %
18.03.2026 19:02 13,4 °C 11,7 °C 7,8 °C 55 % 1025,4 hPa 0,0 l/m² 0 min 0 W/m² 6,4 km/h (2 Bft) 100,00 %
18.03.2026 19:04 13,3 °C 11,1 °C 7,8 °C 55 % 1025,5 hPa 0,0 l/m² 0 min 0 W/m² 3,2 km/h (1 Bft) 100,00 %
18.03.2026 19:06 13,2 °C 11,1 °C 7,2 °C 56 % 1025,5 hPa 0,0 l/m² 0 min 0 W/m² 0,0 km/h (0 Bft) 100,00 %
18.03.2026 19:08 13,2 °C 11,1 °C 7,2 °C 57 % 1025,5 hPa 0,0 l/m² 0 min 0 W/m² 3,2 km/h (1 Bft) 100,00 %
18.03.2026 19:10 13,1 °C 10,6 °C 7,2 °C 57 % 1025,5 hPa 0,0 l/m² 0 min 0 W/m² 0,0 km/h (0 Bft) 100,00 %
18.03.2026 19:12 13,1 °C 10,6 °C 7,2 °C 57 % 1025,5 hPa 0,0 l/m² 0 min 0 W/m² 0,0 km/h (0 Bft) 100,00 %
18.03.2026 19:14 12,9 °C 10,6 °C 6,7 °C 58 % 1025,5 hPa 0,0 l/m² 0 min 0 W/m² 0,0 km/h (0 Bft) 100,00 %
18.03.2026 19:16 12,9 °C 10,0 °C 6,7 °C 58 % 1025,6 hPa 0,0 l/m² 0 min 0 W/m² 3,2 km/h (1 Bft) 97,83 %
18.03.2026 19:18 12,8 °C 10,0 °C 6,7 °C 59 % 1025,6 hPa 0,0 l/m² 0 min 0 W/m² 0,0 km/h (0 Bft) 100,00 %
18.03.2026 19:20 12,7 °C 10,0 °C 6,1 °C 59 % 1025,6 hPa 0,0 l/m² 0 min 0 W/m² 0,0 km/h (0 Bft) 100,00 %
18.03.2026 19:22 12,6 °C 9,4 °C 6,1 °C 60 % 1025,7 hPa 0,0 l/m² 0 min 0 W/m² 0,0 km/h (0 Bft) 100,00 %
18.03.2026 19:24 12,6 °C 9,4 °C 6,1 °C 60 % 1025,7 hPa 0,0 l/m² 0 min 0 W/m² 0,0 km/h (0 Bft) 100,00 %
18.03.2026 19:26 12,4 °C 9,4 °C 5,6 °C 61 % 1025,7 hPa 0,0 l/m² 0 min 0 W/m² 0,0 km/h (0 Bft) 100,00 %
18.03.2026 19:28 12,3 °C 9,4 °C 5,6 °C 61 % 1025,7 hPa 0,0 l/m² 0 min 0 W/m² 0,0 km/h (0 Bft) 95,74 %
18.03.2026 19:30 12,2 °C 8,9 °C 5,6 °C 62 % 1025,7 hPa 0,0 l/m² 0 min 0 W/m² 0,0 km/h (0 Bft) 97,87 %
18.03.2026 19:32 12,2 °C 8,9 °C 5,6 °C 62 % 1025,8 hPa 0,0 l/m² 0 min 0 W/m² 0,0 km/h (0 Bft) 100,00 %
18.03.2026 19:34 12,1 °C 8,9 °C 5,0 °C 62 % 1025,8 hPa 0,0 l/m² 0 min 0 W/m² 3,2 km/h (1 Bft) 100,00 %
18.03.2026 19:36 11,9 °C 8,9 °C 5,0 °C 62 % 1025,8 hPa 0,0 l/m² 0 min 0 W/m² 3,2 km/h (1 Bft) 100,00 %
18.03.2026 19:38 11,8 °C 8,9 °C 5,0 °C 63 % 1025,8 hPa 0,0 l/m² 0 min 0 W/m² 0,0 km/h (0 Bft) 100,00 %
18.03.2026 19:40 11,8 °C 8,9 °C 5,0 °C 63 % 1025,8 hPa 0,0 l/m² 0 min 0 W/m² 0,0 km/h (0 Bft) 100,00 %
18.03.2026 19:42 11,7 °C 8,9 °C 5,0 °C 63 % 1025,8 hPa 0,0 l/m² 0 min 0 W/m² 0,0 km/h (0 Bft) 100,00 %
18.03.2026 19:44 11,6 °C 8,9 °C 5,0 °C 63 % 1025,8 hPa 0,0 l/m² 0 min 0 W/m² 0,0 km/h (0 Bft) 100,00 %
18.03.2026 19:46 11,5 °C 8,9 °C 5,0 °C 64 % 1025,8 hPa 0,0 l/m² 0 min 0 W/m² 0,0 km/h (0 Bft) 100,00 %
18.03.2026 19:48 11,4 °C 8,3 °C 5,0 °C 64 % 1025,8 hPa 0,0 l/m² 0 min 0 W/m² 0,0 km/h (0 Bft) 100,00 %
18.03.2026 19:50 11,4 °C 8,3 °C 4,4 °C 64 % 1025,9 hPa 0,0 l/m² 0 min 0 W/m² 0,0 km/h (0 Bft) 100,00 %
18.03.2026 19:52 11,3 °C 8,3 °C 4,4 °C 64 % 1025,9 hPa 0,0 l/m² 0 min 0 W/m² 0,0 km/h (0 Bft) 97,87 %
18.03.2026 19:54 11,2 °C 8,3 °C 4,4 °C 65 % 1025,9 hPa 0,0 l/m² 0 min 0 W/m² 0,0 km/h (0 Bft) 95,74 %
18.03.2026 19:56 11,2 °C 8,3 °C 4,4 °C 65 % 1025,9 hPa 0,0 l/m² 0 min 0 W/m² 0,0 km/h (0 Bft) 97,87 %
18.03.2026 19:58 11,1 °C 8,3 °C 4,4 °C 65 % 1025,9 hPa 0,0 l/m² 0 min 0 W/m² 0,0 km/h (0 Bft) 97,87 %
18.03.2026 20:00 11,1 °C 8,3 °C 4,4 °C 65 % 1026,0 hPa 0,0 l/m² 0 min 0 W/m² 0,0 km/h (0 Bft) 95,74 %
18.03.2026 20:02 10,9 °C 7,8 °C 3,9 °C 65 % 1026,0 hPa 0,0 l/m² 0 min 0 W/m² 0,0 km/h (0 Bft) 95,65 %
18.03.2026 20:04 10,9 °C 7,8 °C 3,9 °C 66 % 1026,0 hPa 0,0 l/m² 0 min 0 W/m² 0,0 km/h (0 Bft) 95,92 %
18.03.2026 20:06 10,8 °C 7,8 °C 3,9 °C 66 % 1026,0 hPa 0,0 l/m² 0 min 0 W/m² 0,0 km/h (0 Bft) 94,92 %
18.03.2026 20:08 10,7 °C 7,8 °C 3,9 °C 66 % 1026,0 hPa 0,0 l/m² 0 min 0 W/m² 0,0 km/h (0 Bft) 94,74 %
18.03.2026 20:10 10,6 °C 7,8 °C 3,9 °C 66 % 1026,0 hPa 0,0 l/m² 0 min 0 W/m² 0,0 km/h (0 Bft) 93,62 %
18.03.2026 20:12 10,6 °C 7,8 °C 3,9 °C 67 % 1026,0 hPa 0,0 l/m² 0 min 0 W/m² 0,0 km/h (0 Bft) 95,65 %
18.03.2026 20:14 10,5 °C 7,8 °C 3,9 °C 67 % 1026,0 hPa 0,0 l/m² 0 min 0 W/m² 3,2 km/h (1 Bft) 95,74 %
18.03.2026 20:16 10,4 °C 7,8 °C 3,9 °C 67 % 1026,0 hPa 0,0 l/m² 0 min 0 W/m² 3,2 km/h (1 Bft) 95,74 %
18.03.2026 20:18 10,3 °C 8,3 °C 4,4 °C 67 % 1026,0 hPa 0,0 l/m² 0 min 0 W/m² 3,2 km/h (1 Bft) 95,74 %
18.03.2026 20:20 10,2 °C 8,3 °C 4,4 °C 67 % 1026,0 hPa 0,0 l/m² 0 min 0 W/m² 6,4 km/h (2 Bft) 93,62 %
18.03.2026 20:22 10,2 °C 8,3 °C 4,4 °C 67 % 1026,0 hPa 0,0 l/m² 0 min 0 W/m² 6,4 km/h (2 Bft) 91,49 %
18.03.2026 20:24 10,1 °C 8,3 °C 4,4 °C 67 % 1026,0 hPa 0,0 l/m² 0 min 0 W/m² 3,2 km/h (1 Bft) 91,30 %
18.03.2026 20:26 10,1 °C 8,3 °C 4,4 °C 68 % 1026,0 hPa 0,0 l/m² 0 min 0 W/m² 3,2 km/h (1 Bft) 95,74 %
18.03.2026 20:28 10,1 °C 8,3 °C 4,4 °C 68 % 1026,0 hPa 0,0 l/m² 0 min 0 W/m² 3,2 km/h (1 Bft) 95,74 %
18.03.2026 20:30 10,0 °C 8,3 °C 4,4 °C 68 % 1026,0 hPa 0,0 l/m² 0 min 0 W/m² 3,2 km/h (1 Bft) 95,74 %
18.03.2026 20:32 9,9 °C 8,3 °C 4,4 °C 68 % 1026,0 hPa 0,0 l/m² 0 min 0 W/m² 3,2 km/h (1 Bft) 95,74 %
18.03.2026 20:34 9,9 °C 8,3 °C 4,4 °C 68 % 1026,0 hPa 0,0 l/m² 0 min 0 W/m² 3,2 km/h (1 Bft) 95,74 %
18.03.2026 20:36 9,9 °C 8,3 °C 4,4 °C 68 % 1026,0 hPa 0,0 l/m² 0 min 0 W/m² 3,2 km/h (1 Bft) 31,03 %
18.03.2026 20:38 9,8 °C 8,3 °C 4,4 °C 68 % 1026,0 hPa 0,0 l/m² 0 min 0 W/m² 3,2 km/h (1 Bft) 97,87 %
18.03.2026 20:40 9,8 °C 8,3 °C 4,4 °C 68 % 1026,0 hPa 0,0 l/m² 0 min 0 W/m² 3,2 km/h (1 Bft) 95,74 %
18.03.2026 20:42 9,8 °C 8,3 °C 4,4 °C 68 % 1026,0 hPa 0,0 l/m² 0 min 0 W/m² 0,0 km/h (0 Bft) 95,74 %
18.03.2026 20:44 9,8 °C 7,8 °C 4,4 °C 68 % 1026,0 hPa 0,0 l/m² 0 min 0 W/m² 0,0 km/h (0 Bft) 95,74 %
18.03.2026 20:46 9,7 °C 7,8 °C 4,4 °C 69 % 1026,0 hPa 0,0 l/m² 0 min 0 W/m² 3,2 km/h (1 Bft) 95,74 %
18.03.2026 20:48 9,7 °C 7,8 °C 4,4 °C 69 % 1026,1 hPa 0,0 l/m² 0 min 0 W/m² 3,2 km/h (1 Bft) 100,00 %
18.03.2026 20:50 9,7 °C 7,8 °C 3,9 °C 69 % 1026,0 hPa 0,0 l/m² 0 min 0 W/m² 3,2 km/h (1 Bft) 97,87 %
18.03.2026 20:52 9,6 °C 7,8 °C 3,9 °C 69 % 1026,1 hPa 0,0 l/m² 0 min 0 W/m² 0,0 km/h (0 Bft) 97,87 %
18.03.2026 20:54 9,6 °C 7,8 °C 3,9 °C 69 % 1026,1 hPa 0,0 l/m² 0 min 0 W/m² 3,2 km/h (1 Bft) 97,87 %
18.03.2026 20:56 9,6 °C 7,8 °C 3,9 °C 69 % 1026,2 hPa 0,0 l/m² 0 min 0 W/m² 3,2 km/h (1 Bft) 97,87 %
18.03.2026 20:58 9,6 °C 7,8 °C 3,9 °C 69 % 1026,2 hPa 0,0 l/m² 0 min 0 W/m² 3,2 km/h (1 Bft) 95,74 %
18.03.2026 21:00 9,5 °C 7,8 °C 3,9 °C 69 % 1026,1 hPa 0,0 l/m² 0 min 0 W/m² 6,4 km/h (2 Bft) 97,83 %
18.03.2026 21:02 9,5 °C 7,8 °C 3,9 °C 69 % 1026,2 hPa 0,0 l/m² 0 min 0 W/m² 3,2 km/h (1 Bft) 97,87 %
18.03.2026 21:04 9,4 °C 7,8 °C 3,9 °C 69 % 1026,2 hPa 0,0 l/m² 0 min 0 W/m² 3,2 km/h (1 Bft) 95,92 %
18.03.2026 21:06 9,4 °C 7,8 °C 3,9 °C 69 % 1026,2 hPa 0,0 l/m² 0 min 0 W/m² 3,2 km/h (1 Bft) 97,87 %
18.03.2026 21:08 9,4 °C 7,8 °C 4,4 °C 69 % 1026,2 hPa 0,0 l/m² 0 min 0 W/m² 3,2 km/h (1 Bft) 97,87 %
18.03.2026 21:10 9,4 °C 7,8 °C 4,4 °C 69 % 1026,2 hPa 0,0 l/m² 0 min 0 W/m² 6,4 km/h (2 Bft) 97,83 %
18.03.2026 21:12 9,3 °C 7,8 °C 4,4 °C 70 % 1026,2 hPa 0,0 l/m² 0 min 0 W/m² 3,2 km/h (1 Bft) 95,74 %
18.03.2026 21:14 9,3 °C 7,8 °C 4,4 °C 70 % 1026,2 hPa 0,0 l/m² 0 min 0 W/m² 6,4 km/h (2 Bft) 97,87 %
18.03.2026 21:16 9,3 °C 7,8 °C 4,4 °C 70 % 1026,2 hPa 0,0 l/m² 0 min 0 W/m² 6,4 km/h (2 Bft) 97,87 %
18.03.2026 21:18 9,3 °C 7,8 °C 4,4 °C 70 % 1026,3 hPa 0,0 l/m² 0 min 0 W/m² 3,2 km/h (1 Bft) 97,87 %
18.03.2026 21:20 9,2 °C 7,8 °C 4,4 °C 70 % 1026,3 hPa 0,0 l/m² 0 min 0 W/m² 3,2 km/h (1 Bft) 97,87 %
18.03.2026 21:22 9,2 °C 7,8 °C 4,4 °C 70 % 1026,3 hPa 0,0 l/m² 0 min 0 W/m² 3,2 km/h (1 Bft) 100,00 %
18.03.2026 21:24 9,2 °C 7,8 °C 3,9 °C 70 % 1026,3 hPa 0,0 l/m² 0 min 0 W/m² 3,2 km/h (1 Bft) 100,00 %
18.03.2026 21:26 9,2 °C 7,2 °C 3,9 °C 70 % 1026,3 hPa 0,0 l/m² 0 min 0 W/m² 6,4 km/h (2 Bft) 100,00 %
18.03.2026 21:28 9,2 °C 7,2 °C 3,9 °C 71 % 1026,3 hPa 0,0 l/m² 0 min 0 W/m² 6,4 km/h (2 Bft) 100,00 %
18.03.2026 21:30 9,1 °C 7,2 °C 3,9 °C 71 % 1026,3 hPa 0,0 l/m² 0 min 0 W/m² 3,2 km/h (1 Bft) 97,87 %
18.03.2026 21:32 9,1 °C 7,2 °C 3,9 °C 71 % 1026,4 hPa 0,0 l/m² 0 min 0 W/m² 6,4 km/h (2 Bft) 100,00 %
18.03.2026 21:34 9,1 °C 7,2 °C 3,9 °C 71 % 1026,3 hPa 0,0 l/m² 0 min 0 W/m² 6,4 km/h (2 Bft) 100,00 %
18.03.2026 21:36 9,1 °C 7,2 °C 3,9 °C 71 % 1026,4 hPa 0,0 l/m² 0 min 0 W/m² 3,2 km/h (1 Bft) 97,87 %
18.03.2026 21:38 9,0 °C 7,2 °C 3,9 °C 71 % 1026,4 hPa 0,0 l/m² 0 min 0 W/m² 3,2 km/h (1 Bft) 97,87 %
18.03.2026 21:40 9,0 °C 7,2 °C 3,9 °C 71 % 1026,4 hPa 0,0 l/m² 0 min 0 W/m² 6,4 km/h (2 Bft) 97,87 %
18.03.2026 21:42 8,9 °C 7,2 °C 3,9 °C 71 % 1026,4 hPa 0,0 l/m² 0 min 0 W/m² 6,4 km/h (2 Bft) 97,87 %
18.03.2026 21:44 8,9 °C 7,2 °C 3,9 °C 71 % 1026,4 hPa 0,0 l/m² 0 min 0 W/m² 0,0 km/h (0 Bft) 95,74 %
18.03.2026 21:46 8,9 °C 7,2 °C 3,9 °C 71 % 1026,4 hPa 0,0 l/m² 0 min 0 W/m² 3,2 km/h (1 Bft) 95,65 %
18.03.2026 21:48 8,8 °C 7,2 °C 3,9 °C 71 % 1026,5 hPa 0,0 l/m² 0 min 0 W/m² 3,2 km/h (1 Bft) 95,74 %
18.03.2026 21:50 8,8 °C 7,2 °C 3,3 °C 71 % 1026,6 hPa 0,0 l/m² 0 min 0 W/m² 3,2 km/h (1 Bft) 95,74 %
18.03.2026 21:52 8,8 °C 6,7 °C 3,3 °C 71 % 1026,5 hPa 0,0 l/m² 0 min 0 W/m² 6,4 km/h (2 Bft) 95,74 %
18.03.2026 21:54 8,7 °C 6,7 °C 3,3 °C 71 % 1026,6 hPa 0,0 l/m² 0 min 0 W/m² 6,4 km/h (2 Bft) 95,74 %
18.03.2026 21:56 8,7 °C 6,7 °C 3,3 °C 71 % 1026,5 hPa 0,0 l/m² 0 min 0 W/m² 6,4 km/h (2 Bft) 95,74 %
18.03.2026 21:58 8,7 °C 6,7 °C 3,3 °C 72 % 1026,5 hPa 0,0 l/m² 0 min 0 W/m² 3,2 km/h (1 Bft) 95,65 %
18.03.2026 22:00 8,6 °C 6,7 °C 3,3 °C 71 % 1026,5 hPa 0,0 l/m² 0 min 0 W/m² 3,2 km/h (1 Bft) 95,74 %
18.03.2026 22:02 8,6 °C 6,7 °C 3,3 °C 71 % 1026,5 hPa 0,0 l/m² 0 min 0 W/m² 3,2 km/h (1 Bft) 93,62 %
18.03.2026 22:04 8,6 °C 6,7 °C 3,3 °C 71 % 1026,5 hPa 0,0 l/m² 0 min 0 W/m² 6,4 km/h (2 Bft) 95,92 %
18.03.2026 22:06 8,5 °C 6,7 °C 3,3 °C 72 % 1026,5 hPa 0,0 l/m² 0 min 0 W/m² 9,7 km/h (2 Bft) 93,62 %
18.03.2026 22:08 8,4 °C 6,7 °C 3,3 °C 72 % 1026,5 hPa 0,0 l/m² 0 min 0 W/m² 3,2 km/h (1 Bft) 95,65 %
18.03.2026 22:10 8,4 °C 6,7 °C 3,3 °C 72 % 1026,5 hPa 0,0 l/m² 0 min 0 W/m² 3,2 km/h (1 Bft) 97,87 %
18.03.2026 22:12 8,4 °C 6,7 °C 3,3 °C 72 % 1026,5 hPa 0,0 l/m² 0 min 0 W/m² 3,2 km/h (1 Bft) 95,74 %
18.03.2026 22:14 8,4 °C 6,7 °C 3,3 °C 73 % 1026,5 hPa 0,0 l/m² 0 min 0 W/m² 3,2 km/h (1 Bft) 100,00 %
18.03.2026 22:16 8,4 °C 7,2 °C 3,9 °C 72 % 1026,6 hPa 0,0 l/m² 0 min 0 W/m² 6,4 km/h (2 Bft) 97,87 %
18.03.2026 22:18 8,4 °C 7,2 °C 3,9 °C 72 % 1026,5 hPa 0,0 l/m² 0 min 0 W/m² 6,4 km/h (2 Bft) 100,00 %
18.03.2026 22:20 8,4 °C 7,2 °C 3,9 °C 72 % 1026,5 hPa 0,0 l/m² 0 min 0 W/m² 6,4 km/h (2 Bft) 97,83 %
18.03.2026 22:22 8,4 °C 7,2 °C 3,9 °C 72 % 1026,5 hPa 0,0 l/m² 0 min 0 W/m² 6,4 km/h (2 Bft) 100,00 %
18.03.2026 22:24 8,5 °C 7,2 °C 3,9 °C 72 % 1026,5 hPa 0,0 l/m² 0 min 0 W/m² 6,4 km/h (2 Bft) 100,00 %
18.03.2026 22:26 8,6 °C 7,2 °C 3,9 °C 72 % 1026,5 hPa 0,0 l/m² 0 min 0 W/m² 6,4 km/h (2 Bft) 100,00 %
18.03.2026 22:28 8,6 °C 7,2 °C 3,9 °C 72 % 1026,5 hPa 0,0 l/m² 0 min 0 W/m² 6,4 km/h (2 Bft) 100,00 %
18.03.2026 22:30 8,6 °C 7,2 °C 3,9 °C 72 % 1026,6 hPa 0,0 l/m² 0 min 0 W/m² 6,4 km/h (2 Bft) 100,00 %
18.03.2026 22:32 8,7 °C 7,2 °C 3,9 °C 72 % 1026,5 hPa 0,0 l/m² 0 min 0 W/m² 3,2 km/h (1 Bft) 97,83 %
18.03.2026 22:34 8,7 °C 7,2 °C 3,9 °C 72 % 1026,7 hPa 0,0 l/m² 0 min 0 W/m² 6,4 km/h (2 Bft) 100,00 %
18.03.2026 22:36 8,7 °C 7,2 °C 3,9 °C 72 % 1026,6 hPa 0,0 l/m² 0 min 0 W/m² 3,2 km/h (1 Bft) 97,87 %
18.03.2026 22:38 8,7 °C 7,2 °C 3,9 °C 72 % 1026,7 hPa 0,0 l/m² 0 min 0 W/m² 3,2 km/h (1 Bft) 100,00 %
18.03.2026 22:40 8,7 °C 7,2 °C 3,9 °C 72 % 1026,7 hPa 0,0 l/m² 0 min 0 W/m² 3,2 km/h (1 Bft) 100,00 %
18.03.2026 22:42 8,7 °C 7,2 °C 3,3 °C 72 % 1026,6 hPa 0,0 l/m² 0 min 0 W/m² 3,2 km/h (1 Bft) 97,87 %
18.03.2026 22:44 8,7 °C 6,7 °C 3,3 °C 72 % 1026,7 hPa 0,0 l/m² 0 min 0 W/m² 6,4 km/h (2 Bft) 97,83 %
18.03.2026 22:46 8,7 °C 6,7 °C 3,3 °C 72 % 1026,5 hPa 0,0 l/m² 0 min 0 W/m² 3,2 km/h (1 Bft) 100,00 %
18.03.2026 22:48 8,6 °C 6,7 °C 3,3 °C 72 % 1026,6 hPa 0,0 l/m² 0 min 0 W/m² 0,0 km/h (0 Bft) 97,87 %
18.03.2026 22:50 8,6 °C 6,7 °C 3,3 °C 72 % 1026,6 hPa 0,0 l/m² 0 min 0 W/m² 3,2 km/h (1 Bft) 100,00 %
18.03.2026 22:52 8,6 °C 6,7 °C 3,3 °C 72 % 1026,6 hPa 0,0 l/m² 0 min 0 W/m² 6,4 km/h (2 Bft) 100,00 %
18.03.2026 22:54 8,6 °C 6,7 °C 3,3 °C 73 % 1026,6 hPa 0,0 l/m² 0 min 0 W/m² 3,2 km/h (1 Bft) 100,00 %
18.03.2026 22:56 8,5 °C 6,7 °C 3,3 °C 73 % 1026,6 hPa 0,0 l/m² 0 min 0 W/m² 3,2 km/h (1 Bft) 100,00 %
18.03.2026 22:58 8,4 °C 6,7 °C 3,3 °C 73 % 1026,7 hPa 0,0 l/m² 0 min 0 W/m² 3,2 km/h (1 Bft) 100,00 %
18.03.2026 23:00 8,4 °C 6,7 °C 3,3 °C 73 % 1026,6 hPa 0,0 l/m² 0 min 0 W/m² 3,2 km/h (1 Bft) 97,87 %
18.03.2026 23:02 8,4 °C 6,7 °C 3,3 °C 73 % 1026,6 hPa 0,0 l/m² 0 min 0 W/m² 3,2 km/h (1 Bft) 100,00 %
18.03.2026 23:04 8,4 °C 6,7 °C 2,8 °C 73 % 1026,6 hPa 0,0 l/m² 0 min 0 W/m² 3,2 km/h (1 Bft) 100,00 %
18.03.2026 23:06 8,3 °C 6,7 °C 3,3 °C 73 % 1026,6 hPa 0,0 l/m² 0 min 0 W/m² 3,2 km/h (1 Bft) 100,00 %
18.03.2026 23:08 8,3 °C 6,7 °C 3,3 °C 73 % 1026,6 hPa 0,0 l/m² 0 min 0 W/m² 3,2 km/h (1 Bft) 100,00 %
18.03.2026 23:10 8,3 °C 6,7 °C 2,8 °C 73 % 1026,6 hPa 0,0 l/m² 0 min 0 W/m² 3,2 km/h (1 Bft) 100,00 %
18.03.2026 23:12 8,2 °C 6,7 °C 2,8 °C 74 % 1026,6 hPa 0,0 l/m² 0 min 0 W/m² 6,4 km/h (2 Bft) 97,87 %
18.03.2026 23:14 8,2 °C 6,7 °C 2,8 °C 74 % 1026,6 hPa 0,0 l/m² 0 min 0 W/m² 3,2 km/h (1 Bft) 100,00 %
18.03.2026 23:16 8,2 °C 6,7 °C 2,8 °C 74 % 1026,6 hPa 0,0 l/m² 0 min 0 W/m² 6,4 km/h (2 Bft) 100,00 %
18.03.2026 23:18 8,2 °C 6,1 °C 2,8 °C 74 % 1026,6 hPa 0,0 l/m² 0 min 0 W/m² 3,2 km/h (1 Bft) 97,83 %
18.03.2026 23:20 8,1 °C 6,1 °C 2,8 °C 74 % 1026,6 hPa 0,0 l/m² 0 min 0 W/m² 3,2 km/h (1 Bft) 97,87 %
18.03.2026 23:22 8,1 °C 6,1 °C 2,8 °C 74 % 1026,7 hPa 0,0 l/m² 0 min 0 W/m² 6,4 km/h (2 Bft) 100,00 %
18.03.2026 23:24 8,1 °C 6,1 °C 2,8 °C 74 % 1026,7 hPa 0,0 l/m² 0 min 0 W/m² 3,2 km/h (1 Bft) 95,74 %
18.03.2026 23:26 8,1 °C 6,1 °C 2,8 °C 74 % 1026,7 hPa 0,0 l/m² 0 min 0 W/m² 0,0 km/h (0 Bft) 97,87 %
18.03.2026 23:28 8,0 °C 6,1 °C 2,8 °C 74 % 1026,7 hPa 0,0 l/m² 0 min 0 W/m² 0,0 km/h (0 Bft) 97,87 %
18.03.2026 23:30 8,0 °C 6,1 °C 2,8 °C 74 % 1026,7 hPa 0,0 l/m² 0 min 0 W/m² 0,0 km/h (0 Bft) 97,37 %
18.03.2026 23:32 7,9 °C 6,1 °C 2,8 °C 74 % 1026,7 hPa 0,0 l/m² 0 min 0 W/m² 0,0 km/h (0 Bft) 97,87 %
18.03.2026 23:34 7,9 °C 6,1 °C 2,2 °C 74 % 1026,7 hPa 0,0 l/m² 0 min 0 W/m² 0,0 km/h (0 Bft) 95,65 %
18.03.2026 23:36 7,9 °C 5,6 °C 2,2 °C 74 % 1026,8 hPa 0,0 l/m² 0 min 0 W/m² 0,0 km/h (0 Bft) 93,62 %
18.03.2026 23:38 7,9 °C 5,6 °C 2,2 °C 74 % 1026,8 hPa 0,0 l/m² 0 min 0 W/m² 0,0 km/h (0 Bft) 93,62 %
18.03.2026 23:40 7,8 °C 5,6 °C 2,2 °C 74 % 1026,8 hPa 0,0 l/m² 0 min 0 W/m² 0,0 km/h (0 Bft) 91,49 %
18.03.2026 23:42 7,8 °C 5,6 °C 2,2 °C 74 % 1026,8 hPa 0,0 l/m² 0 min 0 W/m² 0,0 km/h (0 Bft) 91,49 %
18.03.2026 23:44 7,8 °C 5,6 °C 2,2 °C 74 % 1026,8 hPa 0,0 l/m² 0 min 0 W/m² 0,0 km/h (0 Bft) 93,48 %
18.03.2026 23:46 7,7 °C 5,6 °C 1,7 °C 74 % 1026,8 hPa 0,0 l/m² 0 min 0 W/m² 0,0 km/h (0 Bft) 93,62 %
18.03.2026 23:48 7,7 °C 5,0 °C 1,7 °C 74 % 1026,8 hPa 0,0 l/m² 0 min 0 W/m² 0,0 km/h (0 Bft) 93,62 %
18.03.2026 23:50 7,7 °C 5,0 °C 1,7 °C 74 % 1026,8 hPa 0,0 l/m² 0 min 0 W/m² 0,0 km/h (0 Bft) 93,62 %
18.03.2026 23:52 7,6 °C 5,0 °C 1,7 °C 74 % 1026,8 hPa 0,0 l/m² 0 min 0 W/m² 3,2 km/h (1 Bft) 91,49 %
18.03.2026 23:54 7,6 °C 5,6 °C 1,7 °C 75 % 1026,8 hPa 0,0 l/m² 0 min 0 W/m² 3,2 km/h (1 Bft) 95,74 %
18.03.2026 23:56 7,5 °C 5,0 °C 1,7 °C 75 % 1026,8 hPa 0,0 l/m² 0 min 0 W/m² 0,0 km/h (0 Bft) 93,48 %
18.03.2026 23:58 7,4 °C 5,0 °C 1,7 °C 75 % 1026,9 hPa 0,0 l/m² 0 min 0 W/m² 0,0 km/h (0 Bft) 93,62 %
_ Min-Zeit 07:12 07:12 06:46 14:56 00:00 - - - 19:06 20:36
Minimum _ 6,2 °C 5,0 °C 1,7 °C 40 % 1022,2 hPa - - - 0,0 km/h (0 Bft) 31,03 %
_ Max-Zeit 15:20 14:18 11:46 00:46 10:18 00:00 11:07 12:40 10:42 00:00
Maximum _ 18,1 °C 26,7 °C 15,6 °C 88 % 1027,1 hPa 0,0 l/m² 5 min 673 W/m² 41,8 km/h
SW (6 Bft)
100,00 %
Durchschnitt _ 11,1 °C 12,3 °C 6,8 °C 67 % 1025,2 hPa #0,0 l/m² #8:43 h 350 W/m² 12,8 km/h (3 Bft) 97,22 %
© 2026 W. Hausmann